AE5VO-5 Weather Reports


Display with metric or nautical units.
time (UTC)temp
F
wind
direction
speed
MPH
gust
MPH
rain 1hr
in
rain 24hr
in
rain mn
in
humidity
%
barometer
mb
20190117110720 45 14 1.0 3.0 0.03 0.19 0.17 95 1015.8
20190117110615 45 41 1.0 3.0 0.02 0.18 0.16 95 1015.8
20190117110526 45 17 1.0 3.0 0.02 0.18 0.16 95 1015.8
20190117110413 45 38 0.0 3.0 0.02 0.18 0.16 95 1015.8
20190117110324 45 20 1.0 3.0 0.02 0.18 0.16 95 1015.8
20190117110216 45 11 1.0 3.0 0.02 0.18 0.16 95 1015.8
20190117110131 45 5 1.0 4.0 0.02 0.18 0.16 95 1015.8
20190117110021 45 67 1.0 4.0 0.02 0.18 0.16 95 1015.7
20190117105940 45 355 1.0 4.0 0.02 0.18 0.16 95 1015.7
20190117105818 44 17 1.0 4.0 0.02 0.18 0.16 95 1015.8
20190117105729 44 37 1.0 6.0 0.03 0.18 0.16 95 1015.8
20190117105623 45 38 1.0 6.0 0.03 0.18 0.16 95 1015.8
20190117105514 45 49 1.0 6.0 0.03 0.18 0.16 95 1015.8
20190117105421 45 17 1.0 6.0 0.03 0.18 0.16 95 1015.8
20190117105332 45 69 1.0 6.0 0.03 0.18 0.16 95 1015.8
20190117105223 45 344 1.0 6.0 0.03 0.18 0.16 95 1015.7
20190117105118 45 40 1.0 6.0 0.03 0.18 0.16 95 1015.7
20190117105029 45 23 2.0 6.0 0.03 0.18 0.16 95 1015.7
20190117104916 45 55 3.0 6.0 0.03 0.18 0.16 95 1015.8
20190117104829 45 32 3.0 5.0 0.02 0.17 0.15 95 1015.7
20190117104720 45 27 3.0 5.0 0.02 0.17 0.15 95 1015.7
20190117104614 45 60 3.0 5.0 0.02 0.17 0.15 95 1015.6
20190117104526 45 40 2.0 5.0 0.02 0.17 0.15 95 1015.7
20190117104432 45 10 2.0 5.0 0.02 0.17 0.15 95 1015.7
20190117104323 45 349 2.0 5.0 0.02 0.17 0.15 95 1015.8
20190117104215 45 53 1.0 5.0 0.02 0.17 0.15 95 1015.8
20190117104125 45 49 2.0 5.0 0.02 0.17 0.15 95 1015.8
20190117104020 45 46 2.0 5.0 0.02 0.17 0.15 95 1015.7
20190117103928 45 36 2.0 5.0 0.02 0.17 0.15 95 1015.8
20190117103820 45 11 1.0 4.0 0.02 0.17 0.15 95 1015.8
20190117103730 45 44 1.0 4.0 0.02 0.17 0.15 95 1015.8
20190117103621 45 77 2.0 4.0 0.02 0.17 0.15 95 1015.7
20190117103424 45 39 1.0 6.0 0.02 0.17 0.15 95 1015.8
20190117103316 45 38 1.0 6.0 0.02 0.17 0.15 95 1015.9
20190117103226 45 64 1.0 6.0 0.02 0.17 0.15 95 1015.8
20190117103117 45 55 1.0 6.0 0.02 0.17 0.15 95 1015.9
20190117103032 45 56 1.0 6.0 0.02 0.17 0.15 95 1015.9
20190117102919 45 44 2.0 6.0 0.01 0.16 0.14 95 1015.8
20190117102832 45 45 3.0 6.0 0.01 0.16 0.14 95 1015.8
20190117102722 45 28 3.0 6.0 0.01 0.16 0.14 95 1015.8
20190117102613 45 49 1.0 3.0 0.01 0.16 0.14 95 1015.8
20190117102529 45 40 1.0 3.0 0.01 0.16 0.14 95 1015.8
20190117102435 45 40 1.0 3.0 0.01 0.16 0.14 95 1015.9
20190117102323 45 63 1.0 3.0 0.01 0.16 0.14 95 1015.9
20190117102214 45 55 1.0 3.0 0.01 0.16 0.14 95 1015.9
20190117102126 45 60 0.0 3.0 0.01 0.16 0.14 95 1015.9
20190117102021 45 72 1.0 3.0 0.01 0.16 0.14 95 1016.0
20190117101927 45 72 1.0 3.0 0.01 0.16 0.14 95 1015.9
20190117101820 45 30 0.0 4.0 0.01 0.16 0.14 95 1015.9
20190117101730 45 30 1.0 6.0 0.01 0.16 0.14 94 1015.9
20190117101621 45 30 1.0 6.0 0.01 0.16 0.14 94 1015.8
20190117101517 46 28 1.0 6.0 0.01 0.16 0.14 94 1015.9
20190117101424 46 34 1.0 6.0 0.01 0.16 0.14 95 1015.9
20190117101316 46 350 2.0 6.0 0.01 0.16 0.14 95 1015.9
20190117101226 46 45 2.0 6.0 0.01 0.16 0.14 95 1015.9
20190117101117 46 349 2.0 6.0 0.01 0.16 0.14 95 1015.9
20190117101032 46 20 2.0 6.0 0.01 0.16 0.14 95 1015.9
20190117100919 46 30 2.0 5.0 0.01 0.16 0.14 95 1015.9
20190117100832 46 350 2.0 5.0 0.01 0.16 0.14 95 1015.8
20190117100722 47 360 2.0 4.0 0.01 0.16 0.14 95 1015.9
20190117100613 47 29 2.0 4.0 0.01 0.16 0.14 95 1015.9
20190117100529 47 17 2.0 4.0 0.01 0.16 0.14 95 1015.9
20190117100415 47 5 2.0 3.0 0.01 0.16 0.14 95 1015.9
20190117100326 47 30 2.0 3.0 0.01 0.16 0.14 95 1015.9
20190117100218 47 30 2.0 3.0 0.01 0.16 0.14 95 1015.9
20190117100129 47 24 1.0 3.0 0.01 0.16 0.14 95 1015.9
20190117095942 47 249 0.0 8.0 0.01 0.16 0.14 95 1015.9
20190117095820 47 249 0.0 8.0 0.01 0.16 0.14 95 1015.9
20190117095730 47 249 0.0 8.0 0.00 0.15 0.13 95 1015.9
20190117095622 47 249 0.0 8.0 0.00 0.15 0.13 95 1015.9
20190117095517 47 249 1.0 8.0 0.00 0.15 0.13 95 1015.9
20190117095424 47 249 1.0 8.0 0.00 0.15 0.13 95 1015.9
20190117095315 47 249 3.0 8.0 0.00 0.15 0.13 95 1015.9
20190117095226 47 244 3.0 8.0 0.00 0.15 0.13 95 1015.9
20190117095117 47 244 1.0 4.0 0.00 0.15 0.13 95 1015.8
20190117095028 47 244 1.0 4.0 0.00 0.15 0.13 95 1015.9
20190117094919 47 244 1.0 5.0 0.00 0.15 0.13 95 1015.8
20190117094832 47 244 2.0 5.0 0.00 0.15 0.13 95 1015.9
20190117094722 47 244 2.0 7.0 0.00 0.15 0.13 95 1015.8
20190117094613 47 213 1.0 7.0 0.00 0.15 0.13 95 1015.9
20190117094525 47 154 1.0 7.0 0.00 0.15 0.13 95 1015.9
20190117094415 47 154 1.0 7.0 0.00 0.15 0.13 95 1015.9
20190117094326 47 154 1.0 7.0 0.00 0.15 0.13 95 1015.9
20190117094217 47 154 2.0 7.0 0.00 0.15 0.13 95 1015.8
20190117094128 47 154 3.0 7.0 0.00 0.15 0.13 95 1015.9
20190117094020 47 173 3.0 7.0 0.00 0.15 0.13 95 1015.9
20190117093931 47 173 3.0 7.0 0.00 0.15 0.13 95 1015.9
20190117093824 47 178 3.0 7.0 0.00 0.15 0.13 95 1015.9
20190117093714 47 186 3.0 7.0 0.00 0.15 0.13 95 1015.9
20190117093625 47 175 4.0 7.0 0.00 0.15 0.13 95 1015.9
20190117093517 47 204 5.0 7.0 0.00 0.15 0.13 95 1015.9
20190117093427 47 202 4.0 7.0 0.00 0.15 0.13 95 1015.9
20190117093318 47 182 3.0 7.0 0.00 0.15 0.13 95 1016.0
20190117093229 47 191 2.0 7.0 0.00 0.15 0.13 95 1016.0
20190117093120 47 182 3.0 7.0 0.00 0.15 0.13 95 1016.0
20190117093031 47 150 4.0 7.0 0.00 0.15 0.13 95 1015.9
20190117092922 47 215 5.0 7.0 0.00 0.15 0.13 95 1016.0
20190117092815 47 170 5.0 7.0 0.00 0.15 0.13 95 1015.9
20190117092725 47 194 4.0 7.0 0.00 0.15 0.13 95 1016.0
20190117092616 47 189 3.0 7.0 0.00 0.15 0.13 95 1016.0
20190117092527 47 189 3.0 7.0 0.00 0.15 0.13 95 1016.0
20190117092418 47 197 3.0 7.0 0.00 0.15 0.13 95 1016.0
20190117092329 47 163 3.0 7.0 0.00 0.15 0.13 95 1016.0
20190117092220 47 196 3.0 7.0 0.00 0.15 0.13 95 1016.0
20190117092131 47 179 4.0 7.0 0.00 0.15 0.13 95 1016.1
20190117092024 47 151 5.0 7.0 0.00 0.15 0.13 95 1016.0
20190117091915 47 174 5.0 7.0 0.00 0.15 0.13 95 1016.0
20190117091826 47 169 4.0 7.0 0.00 0.15 0.13 95 1016.0
20190117091717 47 216 4.0 8.0 0.00 0.15 0.13 95 1016.0
20190117091625 47 190 4.0 8.0 0.00 0.15 0.13 95 1016.0
20190117091516 47 204 4.0 8.0 0.00 0.15 0.13 95 1016.0
20190117091427 47 220 3.0 8.0 0.00 0.15 0.13 95 1016.0
20190117091319 47 205 4.0 10.0 0.00 0.15 0.13 95 1016.0
20190117091229 47 197 4.0 10.0 0.00 0.15 0.13 95 1016.0
20190117091120 47 182 4.0 10.0 0.00 0.15 0.13 95 1016.0
20190117091032 47 178 5.0 10.0 0.00 0.15 0.13 95 1016.0
20190117090815 47 199 5.0 10.0 0.00 0.15 0.13 95 1016.0
20190117090725 47 199 6.0 10.0 0.00 0.15 0.13 95 1016.0
20190117090616 47 156 7.0 10.0 0.00 0.15 0.13 95 1016.0
20190117090527 47 183 5.0 10.0 0.00 0.15 0.13 95 1016.0
20190117090419 47 180 4.0 11.0 0.00 0.15 0.13 95 1016.1
20190117090330 47 198 5.0 11.0 0.01 0.15 0.13 95 1016.0
20190117090221 47 244 6.0 11.0 0.01 0.15 0.13 95 1016.1
20190117090132 47 200 6.0 11.0 0.01 0.15 0.13 95 1016.1
20190117090023 47 192 6.0 11.0 0.01 0.15 0.13 95 1016.0
20190117085941 47 180 6.0 11.0 0.01 0.15 0.13 95 1016.0
20190117085824 47 215 5.0 11.0 0.01 0.15 0.13 95 1016.0
20190117085714 47 203 6.0 11.0 0.01 0.15 0.13 95 1016.0
20190117085625 47 167 7.0 11.0 0.01 0.15 0.13 95 1016.0
20190117085516 47 195 6.0 10.0 0.01 0.15 0.13 95 1016.0
20190117085423 47 223 5.0 10.0 0.01 0.15 0.13 95 1016.1
20190117085318 47 161 6.0 10.0 0.01 0.15 0.13 95 1016.1
20190117085229 47 194 6.0 10.0 0.01 0.15 0.13 95 1016.1
20190117085120 47 251 4.0 11.0 0.01 0.15 0.13 95 1016.1
20190117085031 46 156 5.0 12.0 0.01 0.15 0.13 95 1016.1
20190117084917 47 238 4.0 13.0 0.01 0.15 0.13 95 1016.0
20190117084814 47 173 4.0 13.0 0.01 0.15 0.13 95 1016.0
20190117084724 47 134 3.0 13.0 0.01 0.15 0.13 95 1016.0
20190117084413 47 154 6.0 13.0 0.01 0.15 0.13 95 1016.0
20190117084328 47 199 6.0 13.0 0.01 0.15 0.13 95 1016.0
20190117084219 46 172 8.0 13.0 0.01 0.15 0.13 95 1015.9
20190117084130 46 148 7.0 14.0 0.01 0.15 0.13 95 1015.9
20190117084021 46 143 6.0 10.0 0.01 0.15 0.13 95 1015.9
20190117083929 46 188 7.0 10.0 0.01 0.15 0.13 95 1016.0
20190117083826 46 183 6.0 10.0 0.01 0.15 0.13 95 1016.0
20190117083628 46 150 6.0 9.0 0.02 0.15 0.13 95 1016.1
20190117083518 46 186 4.0 9.0 0.03 0.15 0.13 95 1016.1
20190117083231 46 128 4.0 12.0 0.03 0.15 0.13 95 1016.1
20190117083122 46 213 4.0 12.0 0.03 0.15 0.13 95 1016.2
20190117083013 46 184 5.0 12.0 0.03 0.15 0.13 95 1016.1
20190117082921 46 161 4.0 12.0 0.03 0.15 0.13 95 1016.2
20190117082818 46 165 5.0 12.0 0.03 0.15 0.13 95 1016.2
20190117082728 46 162 7.0 12.0 0.03 0.15 0.13 95 1016.2
20190117082619 46 148 7.0 12.0 0.03 0.15 0.13 95 1016.2
20190117082530 46 147 7.0 12.0 0.03 0.15 0.13 95 1016.2
20190117082417 46 134 5.0 9.0 0.03 0.15 0.13 95 1016.3
20190117082332 46 188 5.0 7.0 0.03 0.15 0.13 95 1016.2
20190117082223 46 204 4.0 7.0 0.03 0.15 0.13 95 1016.3
20190117082114 46 160 4.0 7.0 0.03 0.15 0.13 95 1016.3
20190117082025 46 153 4.0 7.0 0.03 0.15 0.13 95 1016.3
20190117081932 46 157 5.0 7.0 0.03 0.15 0.13 95 1016.3
20190117081828 46 201 5.0 7.0 0.03 0.15 0.13 95 1016.3
20190117081719 46 191 5.0 7.0 0.03 0.15 0.13 95 1016.3
20190117081630 46 141 5.0 8.0 0.03 0.15 0.13 95 1016.3
20190117081521 46 197 4.0 6.0 0.03 0.15 0.13 95 1016.4
20190117081428 46 165 2.0 7.0 0.03 0.15 0.13 95 1016.4
20190117081323 46 126 1.0 10.0 0.03 0.15 0.13 95 1016.4
20190117081234 46 126 1.0 10.0 0.03 0.15 0.13 95 1016.4
20190117081122 46 126 1.0 10.0 0.03 0.15 0.13 95 1016.4
20190117081013 46 126 3.0 10.0 0.04 0.15 0.13 95 1016.4
20190117080920 46 126 3.0 10.0 0.04 0.15 0.13 95 1016.3
20190117080817 46 178 3.0 10.0 0.04 0.15 0.13 95 1016.5
20190117080728 46 178 5.0 10.0 0.04 0.15 0.13 95 1016.5
20190117080618 46 192 7.0 10.0 0.04 0.15 0.13 95 1016.4
20190117080529 46 185 5.0 10.0 0.04 0.15 0.13 95 1016.4
20190117080416 46 179 5.0 9.0 0.05 0.15 0.13 95 1016.5
20190117080327 46 208 6.0 9.0 0.04 0.14 0.12 95 1016.4
20190117080222 46 167 6.0 10.0 0.04 0.14 0.12 95 1016.4
20190117080113 46 209 6.0 12.0 0.04 0.14 0.12 95 1016.4
20190117080024 46 214 5.0 12.0 0.05 0.14 0.12 95 1016.4
20190117075943 46 175 5.0 12.0 0.05 0.14 0.12 95 1016.4
20190117075820 47 173 3.0 12.0 0.05 0.14 0.12 95 1016.5
20190117075714 47 212 3.0 12.0 0.06 0.14 0.12 95 1016.5
20190117075625 47 200 3.0 12.0 0.06 0.14 0.12 95 1016.5
20190117075516 47 175 4.0 14.0 0.06 0.14 0.12 95 1016.5
20190117075423 47 211 6.0 14.0 0.07 0.14 0.12 95 1016.4
20190117075314 47 220 6.0 14.0 0.07 0.14 0.12 95 1016.4
20190117075229 47 252 6.0 14.0 0.07 0.14 0.12 95 1016.5
20190117075120 47 201 5.0 14.0 0.08 0.14 0.12 95 1016.4
20190117075031 47 158 5.0 14.0 0.08 0.14 0.12 95 1016.4
20190117074918 47 195 5.0 14.0 0.09 0.14 0.12 95 1016.4
20190117074831 47 184 8.0 19.0 0.09 0.14 0.12 95 1016.2
20190117074725 47 209 8.0 19.0 0.09 0.14 0.12 95 1016.2
20190117074527 47 225 6.0 19.0 0.10 0.14 0.12 95 1016.1
20190117074415 47 189 7.0 19.0 0.10 0.14 0.12 95 1016.1
20190117074327 47 196 7.0 19.0 0.10 0.14 0.12 95 1016.0
20190117074221 46 171 8.0 19.0 0.10 0.14 0.12 95 1016.0
20190117074132 46 157 10.0 19.0 0.10 0.14 0.12 95 1015.9
20190117074023 46 176 9.0 19.0 0.10 0.14 0.12 95 1015.8
20190117073931 46 246 7.0 18.0 0.10 0.14 0.12 95 1015.7
20190117073824 46 184 7.0 19.0 0.10 0.14 0.12 95 1015.8
20190117073718 46 140 10.0 19.0 0.09 0.13 0.11 95 1015.8
20190117073630 46 186 11.0 19.0 0.09 0.13 0.11 95 1015.7
20190117073520 46 129 10.0 19.0 0.08 0.12 0.10 95 1015.6
20190117073427 46 139 10.0 19.0 0.08 0.12 0.10 95 1015.6
20190117073318 46 178 11.0 19.0 0.08 0.12 0.10 95 1015.5
20190117073213 46 160 11.0 19.0 0.08 0.12 0.10 95 1015.6
20190117073124 46 140 13.0 19.0 0.08 0.12 0.10 95 1015.6
20190117073016 46 144 13.0 19.0 0.08 0.12 0.10 95 1015.5
20190117072922 46 130 11.0 19.0 0.08 0.12 0.10 95 1015.5
20190117072815 45 189 10.0 19.0 0.08 0.12 0.10 95 1015.6
20190117072729 45 152 10.0 15.0 0.09 0.12 0.10 95 1015.8
20190117072620 45 162 11.0 15.0 0.09 0.12 0.10 95 1015.9
20190117072531 45 145 12.0 19.0 0.10 0.12 0.10 95 1016.0
20190117072418 45 162 12.0 19.0 0.10 0.12 0.10 95 1016.0
20190117072329 45 166 10.0 19.0 0.10 0.12 0.10 95 1016.1
20190117072224 45 126 11.0 19.0 0.10 0.12 0.10 95 1016.1
20190117072132 45 148 10.0 19.0 0.10 0.12 0.10 95 1016.0
20190117072024 45 161 10.0 19.0 0.10 0.12 0.10 95 1016.0
20190117071931 45 154 9.0 19.0 0.10 0.12 0.10 95 1016.0
20190117071824 45 161 11.0 19.0 0.10 0.12 0.10 95 1016.1
20190117071718 45 135 11.0 19.0 0.10 0.12 0.10 95 1016.1
20190117071629 45 180 10.0 18.0 0.10 0.12 0.10 95 1016.2
20190117071520 45 153 10.0 17.0 0.10 0.12 0.10 95 1016.3
20190117071427 45 179 11.0 17.0 0.10 0.12 0.10 95 1016.3
20190117071318 45 154 10.0 17.0 0.10 0.12 0.10 95 1016.4
20190117071213 45 173 8.0 16.0 0.10 0.12 0.10 95 1016.4
20190117071124 45 167 7.0 16.0 0.10 0.12 0.10 95 1016.6
20190117071015 45 159 7.0 16.0 0.09 0.11 0.09 95 1016.6
20190117070923 45 113 8.0 16.0 0.09 0.11 0.09 95 1016.6
20190117070816 45 110 8.0 14.0 0.09 0.11 0.09 95 1016.6
20190117070726 45 165 8.0 14.0 0.09 0.11 0.09 95 1016.7
20190117070621 45 159 7.0 11.0 0.09 0.11 0.09 95 1016.8
20190117070532 45 162 7.0 11.0 0.09 0.11 0.09 95 1017.0
20190117070419 45 184 6.0 11.0 0.08 0.10 0.08 95 1017.1
20190117070330 44 171 7.0 11.0 0.08 0.10 0.08 95 1017.1
20190117070221 44 150 8.0 11.0 0.08 0.10 0.08 95 1017.1
20190117070116 45 180 8.0 11.0 0.07 0.09 0.07 95 1017.1
20190117070027 44 167 7.0 11.0 0.07 0.09 0.07 95 1017.2
20190117065945 44 175 6.0 10.0 0.07 0.09 0.07 95 1017.4
20190117065824 44 174 6.0 9.0 0.06 0.08 0.06 95 1017.5
20190117065735 44 168 6.0 8.0 0.06 0.08 0.06 95 1017.6
20190117065617 44 168 5.0 8.0 0.06 0.08 0.06 95 1017.6
20190117065529 44 160 5.0 8.0 0.05 0.07 0.05 95 1017.6
20190117065415 44 160 2.0 8.0 0.05 0.07 0.05 95 1017.7
20190117065326 44 190 1.0 8.0 0.05 0.07 0.05 95 1017.8
20190117065217 44 190 1.0 8.0 0.04 0.06 0.04 95 1017.9
20190117065133 44 190 2.0 8.0 0.04 0.06 0.04 95 1018.0
20190117065023 44 184 2.0 8.0 0.04 0.06 0.04 95 1018.0
20190117064931 44 184 3.0 8.0 0.04 0.05 0.03 95 1018.0
20190117064824 44 213 3.0 8.0 0.04 0.05 0.03 95 1018.2
20190117064714 44 186 5.0 8.0 0.03 0.04 0.02 95 1018.3
20190117064629 44 235 6.0 8.0 0.03 0.04 0.02 95 1018.3
20190117064520 44 231 5.0 9.0 0.03 0.04 0.02 94 1018.2
20190117064427 44 221 4.0 9.0 0.03 0.04 0.02 94 1018.1
20190117064318 44 204 2.0 10.0 0.03 0.04 0.02 94 1018.1
20190117064229 44 203 2.0 10.0 0.03 0.04 0.02 94 1018.0
20190117064124 44 192 3.0 10.0 0.03 0.04 0.02 94 1018.0
20190117064015 44 212 2.0 10.0 0.03 0.04 0.02 94 1017.9
20190117063922 44 268 3.0 10.0 0.03 0.04 0.02 94 1017.9
20190117063814 44 180 5.0 10.0 0.03 0.04 0.02 94 1017.9
20190117063725 44 137 5.0 10.0 0.03 0.04 0.02 94 1017.7
20190117063620 44 164 6.0 10.0 0.03 0.04 0.02 95 1017.6
20190117063531 44 177 7.0 10.0 0.03 0.04 0.02 94 1017.5
20190117063418 44 151 6.0 11.0 0.03 0.04 0.02 94 1017.5
20190117063329 44 159 6.0 10.0 0.03 0.04 0.02 94 1017.5
20190117063220 44 145 6.0 10.0 0.03 0.04 0.02 94 1017.5
20190117063115 44 144 6.0 9.0 0.03 0.04 0.02 94 1017.6
20190117063026 44 123 6.0 9.0 0.03 0.04 0.02 94 1017.6
20190117062914 44 129 6.0 9.0 0.03 0.04 0.02 94 1017.7
20190117062827 44 142 4.0 8.0 0.03 0.04 0.02 94 1017.8
20190117062717 44 137 3.0 6.0 0.02 0.03 0.01 94 1017.9
20190117062628 44 140 3.0 6.0 0.02 0.03 0.01 94 1018.0
20190117062523 44 127 3.0 6.0 0.01 0.02 0.00 94 1018.0
20190117062430 44 127 2.0 6.0 0.01 0.02 0.00 94 1018.0
20190117062321 44 135 2.0 6.0 0.01 0.02 0.00 94 1018.0
20190117062232 44 135 3.0 6.0 0.01 0.02 0.00 94 1018.1
20190117062123 44 123 4.0 6.0 0.01 0.02 0.00 94 1018.2
20190117062018 44 109 2.0 5.0 0.01 0.02 0.00 94 1018.2
20190117061925 44 148 2.0 5.0 0.01 0.02 0.00 94 1018.2
20190117061818 44 148 3.0 5.0 0.01 0.02 0.00 94 1018.2
20190117061729 44 148 3.0 5.0 0.01 0.02 0.00 94 1018.3
20190117061620 44 148 2.0 5.0 0.01 0.02 0.00 94 1018.4
20190117061515 44 166 2.0 5.0 0.01 0.02 0.00 94 1018.4
20190117061423 44 166 2.0 5.0 0.01 0.02 0.00 94 1018.5
20190117061314 44 127 1.0 3.0 0.01 0.02 0.00 94 1018.5
20190117061225 44 127 1.0 3.0 0.01 0.02 0.00 94 1018.5
20190117061116 44 127 0.0 3.0 0.01 0.02 0.00 94 1018.5
20190117061031 44 127 0.0 3.0 0.01 0.02 0.00 94 1018.5
20190117060918 44 127 1.0 3.0 0.01 0.02 0.00 94 1018.6
20190117060831 44 127 1.0 3.0 0.01 0.02 0.00 94 1018.6
20190117060721 44 127 1.0 3.0 0.01 0.02 0.00 94 1018.7
20190117060632 44 127 1.0 3.0 0.01 0.02 0.00 94 1018.7
20190117060527 44 276 1.0 3.0 0.01 0.02 0.00 94 1018.7
20190117060414 44 276 1.0 3.0 0.01 0.02 0.00 94 1018.6
20190117060325 44 276 0.0 3.0 0.01 0.02 0.00 94 1018.7
20190117060216 44 276 1.0 7.0 0.01 0.02 0.00 94 1018.7
20190117060127 44 276 1.0 7.0 0.01 0.02 0.00 94 1018.8
20190117060022 44 246 0.0 7.0 0.01 0.02 0.00 94 1018.7
20190117055940 44 155 0.0 7.0 0.01 0.02 0.00 94 1018.6
20190117055818 44 155 1.0 7.0 0.01 0.02 0.00 94 1018.6
20190117055729 44 155 2.0 7.0 0.01 0.02 0.02 94 1018.5
20190117055620 44 167 1.0 7.0 0.01 0.02 0.02 94 1018.6
20190117055515 44 167 2.0 11.0 0.01 0.02 0.02 94 1018.6
20190117055423 44 166 3.0 12.0 0.01 0.02 0.02 94 1018.6
20190117055314 44 181 4.0 12.0 0.01 0.02 0.02 94 1018.5
20190117055225 44 200 4.0 12.0 0.01 0.02 0.02 94 1018.5
20190117055116 44 184 4.0 12.0 0.01 0.02 0.02 94 1018.4
20190117055031 44 193 5.0 12.0 0.01 0.02 0.02 94 1018.3
20190117054918 44 191 4.0 12.0 0.00 0.01 0.01 94 1018.2
20190117054830 44 156 5.0 12.0 0.00 0.01 0.01 94 1018.2
20190117054721 44 141 8.0 12.0 0.00 0.01 0.01 94 1018.1
20190117054632 44 143 9.0 12.0 0.00 0.01 0.01 94 1018.0
20190117054527 44 130 9.0 12.0 0.00 0.01 0.01 94 1017.9
20190117054414 44 126 7.0 12.0 0.00 0.01 0.01 94 1018.0
20190117054325 44 140 7.0 12.0 0.00 0.01 0.01 94 1018.0
20190117054216 44 141 8.0 12.0 0.00 0.01 0.01 94 1018.0
20190117054127 44 148 8.0 12.0 0.00 0.01 0.01 94 1018.1
20190117054022 44 137 8.0 12.0 0.00 0.01 0.01 94 1018.0
20190117053929 44 140 7.0 11.0 0.00 0.01 0.01 94 1018.3
20190117053822 44 141 6.0 10.0 0.00 0.01 0.01 94 1018.4
20190117053732 44 178 5.0 10.0 0.00 0.01 0.01 94 1018.4
20190117053623 44 163 5.0 10.0 0.00 0.01 0.01 94 1018.5
20190117053518 44 171 5.0 8.0 0.00 0.01 0.01 94 1018.5
20190117053425 44 134 4.0 8.0 0.00 0.01 0.01 94 1018.5
20190117053316 44 130 3.0 8.0 0.00 0.01 0.01 94 1018.5
20190117053227 44 136 3.0 8.0 0.00 0.01 0.01 94 1018.5
20190117053118 44 126 2.0 8.0 0.00 0.01 0.01 94 1018.5
20190117053013 44 113 2.0 8.0 0.00 0.01 0.01 94 1018.5
20190117052833 44 176 3.0 8.0 0.00 0.01 0.01 94 1018.6
20190117052723 44 149 4.0 8.0 0.00 0.01 0.01 94 1018.5
20190117052632 44 159 4.0 8.0 0.00 0.01 0.01 94 1018.6
20190117052522 44 153 4.0 8.0 0.00 0.01 0.01 94 1018.7
20190117052414 44 152 4.0 8.0 0.00 0.01 0.01 94 1018.6
20190117052325 44 136 4.0 8.0 0.00 0.01 0.01 94 1018.7
20190117052216 44 144 3.0 8.0 0.00 0.01 0.01 94 1018.8
20190117052128 44 148 2.0 8.0 0.00 0.01 0.01 94 1018.8
20190117052018 44 158 2.0 8.0 0.00 0.01 0.01 94 1018.8
20190117051929 44 158 2.0 8.0 0.00 0.01 0.01 94 1018.8
20190117051822 44 147 2.0 8.0 0.00 0.01 0.01 94 1018.8
20190117051732 44 147 3.0 8.0 0.00 0.01 0.01 94 1018.8
20190117051623 44 150 3.0 8.0 0.00 0.01 0.01 94 1018.7
20190117051514 44 148 3.0 6.0 0.00 0.01 0.01 94 1018.8
20190117051425 44 148 3.0 6.0 0.00 0.01 0.01 94 1018.8
20190117051316 44 148 3.0 5.0 0.00 0.01 0.01 94 1018.7
20190117051227 44 141 2.0 4.0 0.00 0.01 0.01 94 1018.7
20190117051118 44 134 2.0 7.0 0.00 0.01 0.01 94 1018.8
20190117051029 44 134 2.0 7.0 0.00 0.01 0.01 94 1018.8
20190117050922 44 134 2.0 7.0 0.00 0.01 0.01 94 1018.8
20190117050813 44 134 1.0 7.0 0.00 0.01 0.01 94 1018.8
20190117050724 44 134 2.0 7.0 0.00 0.01 0.01 94 1018.8
20190117050615 44 134 2.0 7.0 0.00 0.01 0.01 94 1018.9
20190117050526 44 134 3.0 7.0 0.00 0.01 0.01 94 1018.8
20190117050417 44 138 4.0 7.0 0.00 0.01 0.01 94 1018.9
20190117050328 44 127 3.0 7.0 0.00 0.01 0.01 94 1018.8
20190117050219 44 128 2.0 5.0 0.00 0.01 0.01 94 1018.8
20190117050130 44 115 2.0 6.0 0.00 0.01 0.01 94 1018.9
20190117050021 44 112 3.0 6.0 0.00 0.01 0.01 94 1018.9
20190117045943 44 107 3.0 6.0 0.00 0.01 0.01 94 1018.9
20190117045821 44 111 2.0 6.0 0.00 0.01 0.01 94 1018.9
20190117045732 44 130 2.0 4.0 0.00 0.01 0.01 94 1018.9
20190117045623 44 130 2.0 4.0 0.00 0.01 0.01 94 1018.9
20190117045514 44 130 2.0 4.0 0.00 0.01 0.01 94 1019.0
20190117045426 44 130 2.0 4.0 0.01 0.01 0.01 94 1019.1
20190117045317 44 130 2.0 4.0 0.01 0.01 0.01 94 1019.1
20190117045228 44 130 2.0 4.0 0.01 0.01 0.01 94 1019.0
20190117045119 44 130 2.0 4.0 0.01 0.01 0.01 94 1019.0
20190117045030 44 130 2.0 4.0 0.01 0.01 0.01 94 1019.0
20190117044921 44 130 2.0 4.0 0.01 0.01 0.01 94 1019.0
20190117044814 44 130 2.0 4.0 0.01 0.01 0.01 94 1019.0
20190117044724 44 130 1.0 4.0 0.01 0.01 0.01 94 1019.1
20190117044615 44 130 0.0 4.0 0.01 0.01 0.01 94 1019.1
20190117044526 44 130 1.0 4.0 0.01 0.01 0.01 94 1019.1
20190117044417 44 130 2.0 4.0 0.01 0.01 0.01 94 1019.0
20190117044328 44 130 2.0 4.0 0.01 0.01 0.01 94 1019.0
20190117044219 44 130 1.0 4.0 0.01 0.01 0.01 94 1019.0
20190117044130 44 130 1.0 4.0 0.01 0.01 0.01 94 1019.1
20190117044021 44 130 1.0 4.0 0.01 0.01 0.01 94 1019.0
20190117043913 44 130 2.0 4.0 0.01 0.01 0.01 94 1019.0
20190117043826 44 130 2.0 4.0 0.01 0.01 0.01 94 1019.0
20190117043716 44 131 1.0 4.0 0.01 0.01 0.01 94 1018.9
20190117043627 44 131 2.0 4.0 0.01 0.01 0.01 94 1018.9
20190117043518 44 131 3.0 4.0 0.01 0.01 0.01 94 1018.9
20190117043426 44 136 3.0 4.0 0.01 0.01 0.01 94 1018.8
20190117043321 44 141 2.0 4.0 0.01 0.01 0.01 94 1018.9
20190117043232 44 141 2.0 5.0 0.01 0.01 0.01 94 1018.8
20190117043123 44 141 2.0 5.0 0.01 0.01 0.01 94 1018.8
20190117043014 44 141 2.0 5.0 0.01 0.01 0.01 94 1018.9
20190117042921 44 141 1.0 5.0 0.01 0.01 0.01 94 1019.0
20190117042817 44 141 1.0 5.0 0.01 0.01 0.01 94 1019.0
20190117042728 44 141 2.0 5.0 0.01 0.01 0.01 94 1019.1
20190117042619 44 141 2.0 5.0 0.01 0.01 0.01 94 1019.0
20190117042530 44 141 3.0 5.0 0.01 0.01 0.01 94 1019.0
20190117042418 44 141 2.0 5.0 0.01 0.01 0.01 94 1019.0
20190117042313 44 141 2.0 4.0 0.01 0.01 0.01 94 1019.0
20190117042224 44 123 2.0 4.0 0.01 0.01 0.01 94 1019.0
20190117042115 44 123 2.0 4.0 0.01 0.01 0.01 94 1019.0
20190117042026 44 123 2.0 4.0 0.01 0.01 0.01 94 1019.0
20190117041913 44 123 3.0 4.0 0.01 0.01 0.01 94 1019.0
20190117041829 44 123 3.0 4.0 0.01 0.01 0.01 94 1019.0
20190117041720 44 139 2.0 3.0 0.01 0.01 0.01 94 1018.9
20190117041630 44 139 2.0 3.0 0.01 0.01 0.01 94 1018.9
20190117041521 44 139 1.0 3.0 0.01 0.01 0.01 94 1018.9
20190117041428 44 139 1.0 3.0 0.01 0.01 0.01 94 1019.0
20190117041323 44 139 1.0 3.0 0.01 0.01 0.01 94 1019.0
20190117041214 44 139 0.0 3.0 0.01 0.01 0.01 94 1019.0
20190117041125 44 139 0.0 4.0 0.01 0.01 0.01 94 1019.1
20190117041016 44 139 0.0 5.0 0.01 0.01 0.01 94 1019.1
20190117040923 44 139 0.0 5.0 0.01 0.01 0.01 94 1019.1
20190117040819 44 139 0.0 5.0 0.01 0.01 0.01 94 1019.0
20190117040730 44 139 0.0 5.0 0.01 0.01 0.01 94 1019.0
20190117040621 44 139 1.0 5.0 0.01 0.01 0.01 94 1019.0
20190117040532 44 139 2.0 5.0 0.01 0.01 0.01 94 1019.0
20190117040420 44 139 3.0 5.0 0.01 0.01 0.01 94 1018.8
20190117040315 44 141 3.0 5.0 0.01 0.01 0.01 94 1018.8
20190117040227 44 141 4.0 5.0 0.01 0.01 0.01 94 1018.8
20190117040117 44 129 3.0 5.0 0.01 0.01 0.01 94 1018.8
20190117040028 44 132 3.0 5.0 0.01 0.01 0.01 94 1018.8
20190117035946 44 147 3.0 5.0 0.01 0.01 0.01 94 1018.8
20190117035829 44 153 2.0 5.0 0.01 0.01 0.01 94 1018.8
20190117035720 43 127 2.0 5.0 0.01 0.01 0.01 94 1018.9
20190117035631 43 123 2.0 7.0 0.01 0.01 0.01 94 1018.9
20190117035522 43 136 2.0 7.0 0.01 0.01 0.01 94 1018.9
20190117035429 43 136 2.0 7.0 0.00 0.00 0.00 94 1018.9
20190117035324 43 136 3.0 7.0 0.00 0.00 0.00 94 1018.9
20190117035215 43 142 3.0 8.0 0.00 0.00 0.00 94 1018.9
20190117035126 43 103 3.0 8.0 0.00 0.00 0.00 94 1018.9
20190117034821 43 142 4.0 8.0 0.00 0.00 0.00 94 1018.8
20190117034732 43 138 4.0 8.0 0.00 0.00 0.00 94 1018.8
20190117034623 43 142 5.0 8.0 0.00 0.00 0.00 94 1018.9
20190117034514 43 165 5.0 8.0 0.00 0.00 0.00 94 1018.9
20190117034421 43 155 5.0 7.0 0.00 0.00 0.00 94 1018.9
20190117034316 43 166 4.0 6.0 0.00 0.00 0.00 94 1018.9
20190117034227 43 169 3.0 7.0 0.00 0.00 0.00 94 1019.0
20190117034118 43 157 4.0 7.0 0.00 0.00 0.00 94 1019.0
20190117034029 43 147 4.0 7.0 0.00 0.00 0.00 94 1019.0
20190117033916 43 173 4.0 6.0 0.00 0.00 0.00 94 1019.0
20190117033828 43 165 3.0 6.0 0.00 0.00 0.00 94 1019.0
20190117033722 43 157 3.0 6.0 0.00 0.00 0.00 94 1019.0
20190117033613 43 161 4.0 6.0 0.00 0.00 0.00 94 1019.0
20190117033524 43 160 3.0 6.0 0.00 0.00 0.00 94 1019.0
20190117033431 43 168 2.0 6.0 0.00 0.00 0.00 94 1019.1
20190117033322 43 150 3.0 6.0 0.00 0.00 0.00 94 1019.1
20190117033217 43 150 4.0 7.0 0.00 0.00 0.00 94 1019.1
20190117033128 43 158 4.0 8.0 0.00 0.00 0.00 93 1019.1
20190117033019 43 147 3.0 8.0 0.00 0.00 0.00 93 1019.0
20190117032926 43 146 3.0 8.0 0.00 0.00 0.00 93 1019.0
20190117032818 43 119 4.0 8.0 0.00 0.00 0.00 93 1019.1
20190117032713 43 154 4.0 8.0 0.00 0.00 0.00 93 1019.0
20190117032624 43 174 3.0 8.0 0.00 0.00 0.00 93 1019.0
20190117032515 43 155 4.0 8.0 0.00 0.00 0.00 93 1019.0
20190117032422 43 155 5.0 8.0 0.00 0.00 0.00 93 1019.1
20190117032313 43 169 5.0 8.0 0.00 0.00 0.00 93 1019.0
20190117032228 43 167 4.0 6.0 0.00 0.00 0.00 93 1019.1
20190117032119 43 164 4.0 6.0 0.00 0.00 0.00 93 1019.0
20190117032030 43 155 3.0 6.0 0.00 0.00 0.00 93 1019.1
20190117031917 43 155 4.0 6.0 0.00 0.00 0.00 93 1019.1
20190117031829 43 159 4.0 6.0 0.00 0.00 0.00 93 1019.1
20190117031724 43 166 4.0 6.0 0.00 0.00 0.00 93 1019.1
20190117031615 43 166 4.0 6.0 0.00 0.00 0.00 93 1019.1
20190117031526 43 161 4.0 6.0 0.00 0.00 0.00 93 1019.1
20190117031413 43 151 2.0 6.0 0.00 0.00 0.00 93 1019.0
20190117031324 43 164 2.0 6.0 0.00 0.00 0.00 93 1019.0
20190117031219 43 164 3.0 6.0 0.00 0.00 0.00 93 1019.1
20190117031130 43 164 3.0 6.0 0.00 0.00 0.00 93 1019.1
20190117031021 43 164 2.0 6.0 0.00 0.00 0.00 93 1019.0
20190117030928 43 147 2.0 6.0 0.00 0.00 0.00 93 1019.0
20190117030820 43 147 3.0 6.0 0.00 0.00 0.00 93 1019.0
20190117030715 43 151 3.0 6.0 0.00 0.00 0.00 93 1019.0
20190117030626 43 152 3.0 6.0 0.00 0.00 0.00 93 1019.0
20190117030517 43 153 3.0 5.0 0.00 0.00 0.00 93 1019.0
20190117030424 43 144 3.0 4.0 0.00 0.00 0.00 93 1019.0
20190117030315 43 139 3.0 4.0 0.00 0.00 0.00 93 1019.0
20190117030230 43 170 3.0 5.0 0.00 0.00 0.00 93 1019.0
20190117030121 43 171 2.0 4.0 0.00 0.00 0.00 93 1019.0
20190117030032 43 171 2.0 4.0 0.00 0.00 0.00 93 1019.0
20190117025930 43 171 2.0 4.0 0.00 0.00 0.00 92 1019.0
20190117025829 43 171 2.0 4.0 0.00 0.00 0.00 93 1019.0
20190117025723 43 171 2.0 4.0 0.00 0.00 0.00 93 1019.0
20190117025614 43 171 3.0 4.0 0.00 0.00 0.00 93 1019.0
20190117025525 43 171 3.0 5.0 0.00 0.00 0.00 93 1018.9
20190117025432 43 171 2.0 4.0 0.00 0.00 0.00 92 1019.0
20190117025323 44 171 2.0 4.0 0.00 0.00 0.00 92 1019.0
20190117025218 44 208 2.0 3.0 0.00 0.00 0.00 92 1019.1
20190117025129 44 208 2.0 3.0 0.00 0.00 0.00 92 1019.1
20190117025020 44 208 1.0 2.0 0.00 0.00 0.00 92 1019.0
20190117024927 44 208 1.0 2.0 0.00 0.00 0.00 92 1019.1
20190117024819 44 208 1.0 2.0 0.00 0.00 0.00 92 1019.0
20190117024714 44 208 1.0 2.0 0.00 0.00 0.00 92 1019.1
20190117024624 44 208 0.0 2.0 0.00 0.00 0.00 92 1019.2
20190117024515 44 208 0.0 1.0 0.00 0.00 0.00 92 1019.2
20190117024422 44 208 1.0 1.0 0.00 0.00 0.00 92 1019.2
20190117024224 44 208 0.0 1.0 0.00 0.00 0.00 92 1019.3
20190117024119 44 208 0.0 1.0 0.00 0.00 0.00 92 1019.3
20190117024030 44 208 0.0 1.0 0.00 0.00 0.00 92 1019.2
20190117023917 44 208 0.0 0.0 0.00 0.00 0.00 92 1019.3
20190117023830 44 208 0.0 0.0 0.00 0.00 0.00 92 1019.3
20190117023720 44 208 0.0 0.0 0.00 0.00 0.00 92 1019.3
20190117023615 44 208 0.0 1.0 0.00 0.00 0.00 92 1019.3
20190117023526 44 208 0.0 2.0 0.00 0.00 0.00 92 1019.3
20190117023413 44 208 0.0 2.0 0.00 0.00 0.00 92 1019.4
20190117023324 44 208 0.0 2.0 0.00 0.00 0.00 92 1019.2
20190117023215 44 208 0.0 2.0 0.00 0.00 0.00 92 1019.3
20190117023130 44 208 0.0 5.0 0.00 0.00 0.00 92 1019.3
20190117023021 44 208 0.0 6.0 0.00 0.00 0.00 92 1019.3
20190117022929 44 208 0.0 6.0 0.00 0.00 0.00 92 1019.3
20190117022822 44 208 1.0 6.0 0.00 0.00 0.00 92 1019.2
20190117022732 44 208 2.0 6.0 0.00 0.00 0.00 92 1019.2
20190117022627 44 208 1.0 6.0 0.00 0.00 0.00 92 1019.2
20190117022518 44 208 1.0 6.0 0.00 0.00 0.00 92 1019.2
20190117022425 44 208 2.0 6.0 0.00 0.00 0.00 92 1019.2
20190117022316 44 208 3.0 7.0 0.00 0.00 0.00 92 1019.2
20190117022227 44 214 4.0 7.0 0.00 0.00 0.00 92 1019.2
20190117022122 44 188 3.0 8.0 0.00 0.00 0.00 92 1019.1
20190117022013 44 184 3.0 8.0 0.00 0.00 0.00 92 1019.1
20190117021920 44 195 3.0 8.0 0.00 0.00 0.00 92 1019.1
20190117021831 44 178 3.0 8.0 0.00 0.00 0.00 92 1019.1
20190117021616 44 178 3.0 8.0 0.00 0.00 0.00 91 1019.1
20190117021527 44 178 4.0 8.0 0.00 0.00 0.00 91 1019.1
20190117021325 44 190 6.0 8.0 0.00 0.00 0.00 91 1019.1
20190117021216 44 196 5.0 8.0 0.00 0.00 0.00 91 1019.0
20190117021131 44 218 4.0 8.0 0.00 0.00 0.00 91 1019.0
20190117021022 44 178 3.0 8.0 0.00 0.00 0.00 91 1019.0
20190117020929 44 178 3.0 8.0 0.00 0.00 0.00 91 1019.0
20190117020821 44 211 3.0 8.0 0.00 0.00 0.00 91 1019.0
20190117020732 44 225 4.0 8.0 0.00 0.00 0.00 91 1018.9
20190117020627 44 192 4.0 8.0 0.00 0.00 0.00 91 1019.0
20190117020518 44 194 5.0 8.0 0.00 0.00 0.00 91 1018.9
20190117020425 44 190 5.0 8.0 0.00 0.00 0.00 91 1018.9
20190117020316 44 187 6.0 8.0 0.00 0.00 0.00 91 1019.0
20190117020227 44 196 5.0 8.0 0.00 0.00 0.00 91 1018.9
20190117020122 44 195 4.0 8.0 0.00 0.00 0.00 91 1018.9
20190117020013 44 139 4.0 8.0 0.00 0.00 0.00 91 1018.9
20190117015931 44 140 4.0 8.0 0.00 0.00 0.00 91 1019.0
20190117015829 44 225 3.0 11.0 0.00 0.00 0.00 91 1019.0
20190117015720 44 194 4.0 11.0 0.00 0.00 0.00 90 1019.0
20190117015615 44 219 5.0 11.0 0.00 0.00 0.00 90 1019.0
20190117015526 44 210 4.0 11.0 0.00 0.00 0.00 90 1019.0
20190117015413 44 196 2.0 11.0 0.00 0.00 0.00 90 1019.0
20190117015324 44 196 3.0 11.0 0.00 0.00 0.00 90 1018.9
20190117015215 44 200 4.0 11.0 0.00 0.00 0.00 90 1018.9
20190117015126 44 201 5.0 10.0 0.00 0.00 0.00 90 1018.9
20190117015021 44 179 7.0 10.0 0.00 0.00 0.00 90 1018.8
20190117014929 44 247 7.0 11.0 0.00 0.00 0.00 90 1018.8
20190117014821 44 173 5.0 10.0 0.00 0.00 0.00 90 1018.8
20190117014732 44 227 5.0 10.0 0.00 0.00 0.00 90 1018.7
20190117014623 44 161 5.0 10.0 0.00 0.00 0.00 90 1018.8
20190117014518 44 167 6.0 10.0 0.00 0.00 0.00 90 1018.8
20190117014425 44 190 6.0 10.0 0.00 0.00 0.00 90 1018.7
20190117014316 44 225 6.0 10.0 0.00 0.00 0.00 90 1018.8
20190117014227 44 213 5.0 9.0 0.00 0.00 0.00 90 1018.8
20190117014118 44 196 4.0 9.0 0.00 0.00 0.00 89 1018.8
20190117014013 44 235 4.0 9.0 0.00 0.00 0.00 89 1018.8
20190117013920 44 167 4.0 9.0 0.00 0.00 0.00 89 1018.7
20190117013832 44 160 5.0 9.0 0.00 0.00 0.00 89 1018.7
20190117013723 44 152 6.0 9.0 0.00 0.00 0.00 89 1018.7
20190117013614 44 194 6.0 9.0 0.00 0.00 0.00 89 1018.7
20190117013529 44 170 6.0 8.0 0.00 0.00 0.00 89 1018.8
20190117013416 45 195 5.0 9.0 0.00 0.00 0.00 89 1018.8
20190117013327 45 194 4.0 9.0 0.00 0.00 0.00 89 1018.8
20190117013218 45 201 3.0 9.0 0.00 0.00 0.00 89 1018.8
20190117013129 45 161 3.0 10.0 0.00 0.00 0.00 89 1018.8
20190117013024 45 192 3.0 10.0 0.00 0.00 0.00 89 1018.8
20190117012931 45 188 3.0 10.0 0.00 0.00 0.00 88 1018.8
20190117012823 45 188 4.0 10.0 0.00 0.00 0.00 88 1018.8
20190117012714 45 175 4.0 10.0 0.00 0.00 0.00 88 1018.7
20190117012625 45 222 5.0 10.0 0.00 0.00 0.00 88 1018.7
20190117012520 45 140 6.0 10.0 0.00 0.00 0.00 88 1018.7
20190117012428 45 134 6.0 10.0 0.00 0.00 0.00 88 1018.7
20190117012319 45 144 5.0 8.0 0.00 0.00 0.00 88 1018.7
20190117012230 45 185 5.0 8.0 0.00 0.00 0.00 88 1018.7
20190117012121 45 211 5.0 8.0 0.00 0.00 0.00 88 1018.7
20190117012016 45 212 6.0 8.0 0.00 0.00 0.00 88 1018.8
20190117011923 45 146 6.0 9.0 0.00 0.00 0.00 88 1018.8
20190117011815 45 171 5.0 9.0 0.00 0.00 0.00 88 1018.8
20190117011726 45 236 5.0 9.0 0.00 0.00 0.00 88 1018.8
20190117011617 45 190 5.0 11.0 0.00 0.00 0.00 88 1018.8
20190117011532 45 163 5.0 11.0 0.00 0.00 0.00 88 1018.8
20190117011416 45 144 5.0 14.0 0.00 0.00 0.00 87 1018.8
20190117011327 45 183 5.0 14.0 0.00 0.00 0.00 87 1018.9
20190117011218 45 215 6.0 14.0 0.00 0.00 0.00 87 1018.9
20190117011129 45 210 7.0 14.0 0.00 0.00 0.00 87 1018.9
20190117011024 45 202 7.0 14.0 0.00 0.00 0.00 87 1018.9
20190117010932 45 178 7.0 14.0 0.00 0.00 0.00 87 1019.0
20190117010824 45 191 7.0 14.0 0.00 0.00 0.00 87 1019.0
20190117010714 45 180 8.0 14.0 0.00 0.00 0.00 87 1019.0
20190117010625 45 166 8.0 14.0 0.00 0.00 0.00 86 1019.1
20190117010520 45 201 7.0 11.0 0.00 0.00 0.00 86 1019.1
20190117010427 45 186 6.0 10.0 0.00 0.00 0.00 86 1019.1
20190117010318 45 213 5.0 10.0 0.00 0.00 0.00 86 1019.0
20190117010229 45 193 5.0 10.0 0.00 0.00 0.00 86 1019.0
20190117010120 45 113 6.0 10.0 0.00 0.00 0.00 86 1019.0
20190117010015 45 174 7.0 10.0 0.00 0.00 0.00 86 1019.1
20190117005933 45 159 7.0 10.0 0.00 0.00 0.00 86 1019.0
20190117005831 45 168 6.0 11.0 0.00 0.00 0.00 86 1019.0
20190117005722 45 171 6.0 10.0 0.00 0.00 0.00 86 1019.0
20190117005613 45 161 5.0 10.0 0.00 0.00 0.00 86 1019.1
20190117005524 45 164 4.0 8.0 0.00 0.00 0.00 86 1019.1
20190117005416 45 175 5.0 9.0 0.00 0.00 0.00 86 1019.0
20190117005327 45 174 6.0 11.0 0.00 0.00 0.00 86 1019.0
20190117005218 45 170 4.0 11.0 0.00 0.00 0.00 86 1019.0
20190117005129 45 184 4.0 11.0 0.00 0.00 0.00 86 1019.0
20190117005020 45 211 5.0 11.0 0.00 0.00 0.00 85 1018.9
20190117004931 45 171 6.0 11.0 0.00 0.00 0.00 85 1019.0
20190117004823 46 133 6.0 11.0 0.00 0.00 0.00 85 1019.0
20190117004714 46 238 6.0 11.0 0.00 0.00 0.00 85 1018.9
20190117004625 46 128 7.0 11.0 0.00 0.00 0.00 85 1018.9
20190117004516 46 215 8.0 11.0 0.00 0.00 0.00 85 1018.9
20190117004427 46 184 6.0 11.0 0.00 0.00 0.00 85 1018.9
20190117004318 46 192 6.0 11.0 0.00 0.00 0.00 85 1018.8
20190117004229 46 221 6.0 11.0 0.00 0.00 0.00 85 1018.8
20190117004120 46 183 5.0 14.0 0.00 0.00 0.00 85 1018.8
20190117004031 46 157 6.0 14.0 0.00 0.00 0.00 85 1018.8
20190117003923 46 82 7.0 14.0 0.00 0.00 0.00 85 1018.8
20190117003815 46 173 5.0 14.0 0.00 0.00 0.00 85 1018.8
20190117003726 46 159 5.0 14.0 0.00 0.00 0.00 85 1018.8
20190117003617 46 155 6.0 14.0 0.00 0.00 0.00 85 1018.8
20190117003528 46 150 5.0 14.0 0.00 0.00 0.00 85 1018.9
20190117003419 46 148 7.0 14.0 0.00 0.00 0.00 85 1018.9
20190117003330 46 164 8.0 14.0 0.00 0.00 0.00 85 1018.9
20190117003221 46 148 10.0 14.0 0.00 0.00 0.00 85 1018.9
20190117003132 46 163 8.0 14.0 0.00 0.00 0.00 85 1018.9
20190117003023 46 161 8.0 12.0 0.00 0.00 0.00 85 1018.9
20190117002914 46 153 6.0 12.0 0.00 0.00 0.00 84 1018.9
20190117002826 46 207 6.0 12.0 0.00 0.00 0.00 84 1018.9
20190117002717 46 212 5.0 12.0 0.00 0.00 0.00 84 1018.9
20190117002628 46 157 5.0 12.0 0.00 0.00 0.00 84 1018.9
20190117002519 46 143 5.0 12.0 0.00 0.00 0.00 84 1019.0
20190117002430 46 153 6.0 12.0 0.00 0.00 0.00 84 1019.0
20190117002321 46 141 7.0 12.0 0.00 0.00 0.00 84 1019.0
20190117002232 46 183 6.0 11.0 0.00 0.00 0.00 84 1019.1
20190117002123 46 141 6.0 11.0 0.00 0.00 0.00 84 1019.1
20190117002014 46 205 7.0 12.0 0.00 0.00 0.00 84 1019.1
20190117001926 46 185 7.0 12.0 0.00 0.00 0.00 84 1019.1
20190117001818 46 125 7.0 12.0 0.00 0.00 0.00 84 1019.1
20190117001729 46 189 8.0 12.0 0.00 0.00 0.00 84 1019.1
20190117001620 46 158 6.0 12.0 0.00 0.00 0.00 84 1019.0
20190117001531 46 139 5.0 12.0 0.00 0.00 0.00 84 1019.0
20190117001422 46 155 6.0 12.0 0.00 0.00 0.00 83 1019.0
20190117001330 46 148 6.0 12.0 0.00 0.00 0.00 83 1019.0
20190117001221 46 158 7.0 12.0 0.00 0.00 0.00 83 1019.0
20190117001132 46 167 6.0 12.0 0.00 0.00 0.00 83 1019.0
20190117001023 46 136 4.0 10.0 0.00 0.00 0.00 83 1019.0
20190117000915 46 192 5.0 9.0 0.00 0.00 0.00 83 1019.1
20190117000827 46 206 5.0 9.0 0.00 0.00 0.00 83 1019.1
20190117000718 46 171 6.0 9.0 0.00 0.00 0.00 83 1019.0
20190117000629 46 204 6.0 10.0 0.00 0.00 0.00 83 1019.0
20190117000520 46 183 5.0 10.0 0.00 0.00 0.00 83 1019.1
20190117000427 46 213 5.0 10.0 0.00 0.00 0.00 83 1019.1
20190117000322 46 182 5.0 9.0 0.00 0.00 0.00 83 1019.0
20190117000213 46 171 7.0 14.0 0.00 0.00 0.00 82 1019.1
20190117000124 46 161 6.0 14.0 0.00 0.00 0.00 82 1019.1
20190117000015 46 161 6.0 14.0 0.00 0.00 0.00 82 1019.1
20190116235933 46 222 6.0 14.0 0.00 0.00 0.00 82 1019.1
20190116235815 46 168 6.0 14.0 0.00 0.00 0.00 82 1019.1
20190116235725 46 133 6.0 14.0 0.00 0.00 0.00 82 1019.1
20190116235616 46 168 6.0 14.0 0.00 0.00 0.00 82 1019.1
20190116235527 46 130 6.0 14.0 0.00 0.00 0.00 81 1019.1
20190116235414 46 136 3.0 14.0 0.00 0.00 0.00 81 1019.1
20190116235329 46 151 2.0 7.0 0.00 0.00 0.00 81 1019.2
20190116235220 46 151 4.0 7.0 0.00 0.00 0.00 81 1019.2
20190116235131 46 162 5.0 7.0 0.00 0.00 0.00 81 1019.2
20190116235022 46 213 4.0 9.0 0.00 0.00 0.00 81 1019.2
20190116234929 46 136 3.0 7.0 0.00 0.00 0.00 81 1019.2
20190116234825 46 194 4.0 7.0 0.00 0.00 0.00 80 1019.2
20190116234716 46 182 5.0 7.0 0.00 0.00 0.00 81 1019.2
20190116234628 47 191 5.0 8.0 0.00 0.00 0.00 81 1019.2
20190116234519 46 157 5.0 8.0 0.00 0.00 0.00 80 1019.1
20190116234426 47 162 5.0 8.0 0.00 0.00 0.00 80 1019.2
20190116234321 47 160 4.0 8.0 0.00 0.00 0.00 80 1019.1
20190116234232 47 133 4.0 8.0 0.00 0.00 0.00 80 1019.1
20190116234123 47 153 3.0 8.0 0.00 0.00 0.00 80 1019.1
20190116234014 47 161 4.0 8.0 0.00 0.00 0.00 80 1019.1
20190116233922 47 161 5.0 8.0 0.00 0.00 0.00 80 1019.1
20190116233818 47 163 4.0 8.0 0.00 0.00 0.00 80 1019.1
20190116233729 47 171 4.0 8.0 0.00 0.00 0.00 80 1019.1
20190116233620 47 163 4.0 8.0 0.00 0.00 0.00 80 1019.1
20190116233531 47 178 5.0 8.0 0.00 0.00 0.00 80 1019.1
20190116233418 47 173 3.0 7.0 0.00 0.00 0.00 80 1019.1
20190116233313 47 178 1.0 6.0 0.00 0.00 0.00 80 1019.1
20190116233224 47 178 2.0 6.0 0.00 0.00 0.00 80 1019.1
20190116233115 47 178 4.0 6.0 0.00 0.00 0.00 80 1019.1
20190116233026 47 178 5.0 6.0 0.00 0.00 0.00 80 1019.1
20190116232913 47 164 4.0 7.0 0.00 0.00 0.00 80 1019.1
20190116232829 47 171 4.0 5.0 0.00 0.00 0.00 80 1019.1
20190116232720 47 168 2.0 7.0 0.00 0.00 0.00 80 1019.1
20190116232631 47 178 2.0 7.0 0.00 0.00 0.00 80 1019.1
20190116232522 47 178 3.0 7.0 0.00 0.00 0.00 80 1019.1
20190116232429 47 178 3.0 7.0 0.00 0.00 0.00 80 1019.1
20190116232324 47 178 3.0 7.0 0.00 0.00 0.00 80 1019.1
20190116232215 47 178 3.0 7.0 0.00 0.00 0.00 80 1019.2
20190116232126 47 184 3.0 7.0 0.00 0.00 0.00 80 1019.2
20190116232017 47 156 3.0 7.0 0.00 0.00 0.00 80 1019.1
20190116231925 47 157 4.0 7.0 0.00 0.00 0.00 80 1019.1
20190116231821 47 159 5.0 7.0 0.00 0.00 0.00 80 1019.1
20190116231732 47 144 5.0 7.0 0.00 0.00 0.00 80 1019.1
20190116231623 47 167 4.0 7.0 0.00 0.00 0.00 80 1019.1
20190116231514 47 145 3.0 7.0 0.00 0.00 0.00 80 1019.0
20190116231421 47 145 4.0 7.0 0.00 0.00 0.00 80 1019.0
20190116231316 47 151 4.0 6.0 0.00 0.00 0.00 80 1019.0
20190116231227 47 156 3.0 6.0 0.00 0.00 0.00 80 1019.0
20190116231118 47 162 2.0 6.0 0.00 0.00 0.00 80 1019.0
20190116231029 47 153 2.0 6.0 0.00 0.00 0.00 80 1019.0
20190116230916 47 153 2.0 6.0 0.00 0.00 0.00 80 1019.0
20190116230828 47 153 2.0 6.0 0.00 0.00 0.00 80 1019.0
20190116230723 47 153 1.0 7.0 0.00 0.00 0.00 80 1018.9
20190116230634 47 153 2.0 7.0 0.00 0.00 0.00 80 1019.0
20190116230522 47 153 3.0 7.0 0.00 0.00 0.00 80 1019.0
20190116230426 47 153 3.0 7.0 0.00 0.00 0.00 80 1019.0
20190116230317 47 169 3.0 7.0 0.00 0.00 0.00 80 1019.0
20190116230232 47 151 3.0 7.0 0.00 0.00 0.00 80 1019.0
20190116230123 47 150 2.0 7.0 0.00 0.00 0.00 80 1019.0
20190116230014 47 161 3.0 7.0 0.00 0.00 0.00 80 1019.0
20190116225932 47 161 3.0 7.0 0.00 0.00 0.00 79 1019.0
20190116225830 47 161 4.0 6.0 0.00 0.00 0.00 79 1018.9
20190116225725 47 171 4.0 6.0 0.00 0.00 0.00 79 1019.0
20190116225616 47 159 3.0 5.0 0.00 0.00 0.00 79 1019.0
20190116225527 47 159 2.0 7.0 0.00 0.00 0.00 80 1019.1
20190116225414 47 159 2.0 7.0 0.00 0.00 0.00 80 1019.1
20190116225325 47 159 2.0 7.0 0.00 0.00 0.00 80 1019.1
20190116225220 47 159 3.0 7.0 0.00 0.00 0.00 79 1019.1
20190116225131 47 157 2.0 7.0 0.00 0.00 0.00 79 1019.1
20190116225019 47 142 2.0 7.0 0.00 0.00 0.00 79 1019.2
20190116224818 47 143 4.0 7.0 0.00 0.00 0.00 79 1019.2
20190116224713 47 150 3.0 7.0 0.00 0.00 0.00 79 1019.2
20190116224624 47 131 3.0 7.0 0.00 0.00 0.00 79 1019.2
20190116224515 47 150 2.0 8.0 0.00 0.00 0.00 79 1019.3
20190116224422 47 150 2.0 8.0 0.00 0.00 0.00 79 1019.3
20190116224313 47 150 3.0 8.0 0.00 0.00 0.00 79 1019.3
20190116224227 47 149 3.0 8.0 0.00 0.00 0.00 79 1019.3
20190116224118 47 171 3.0 8.0 0.00 0.00 0.00 79 1019.4
20190116224029 47 171 4.0 8.0 0.00 0.00 0.00 79 1019.4
20190116223916 47 171 4.0 8.0 0.00 0.00 0.00 79 1019.4
20190116223827 47 146 5.0 8.0 0.00 0.00 0.00 79 1019.4
20190116223722 47 155 5.0 8.0 0.00 0.00 0.00 79 1019.5
20190116223613 47 173 4.0 8.0 0.00 0.00 0.00 79 1019.5
20190116223524 47 150 4.0 8.0 0.00 0.00 0.00 79 1019.5
20190116223431 47 138 2.0 7.0 0.00 0.00 0.00 79 1019.5
20190116223322 47 140 2.0 10.0 0.00 0.00 0.00 79 1019.6
20190116223217 47 140 3.0 10.0 0.00 0.00 0.00 79 1019.6
20190116223128 47 142 3.0 10.0 0.00 0.00 0.00 79 1019.7
20190116223019 47 150 4.0 10.0 0.00 0.00 0.00 79 1019.6
20190116222926 47 150 3.0 10.0 0.00 0.00 0.00 79 1019.7
20190116222818 47 148 2.0 10.0 0.00 0.00 0.00 79 1019.6
20190116222713 47 144 2.0 10.0 0.00 0.00 0.00 79 1019.5
20190116222624 47 144 3.0 10.0 0.00 0.00 0.00 79 1019.5
20190116222515 47 144 5.0 10.0 0.00 0.00 0.00 79 1019.6
20190116222422 47 140 4.0 10.0 0.00 0.00 0.00 79 1019.6
20190116222313 47 173 4.0 9.0 0.00 0.00 0.00 79 1019.6
20190116222224 47 175 4.0 9.0 0.00 0.00 0.00 79 1019.6
20190116222119 47 165 5.0 9.0 0.00 0.00 0.00 79 1019.6
20190116222030 47 167 5.0 9.0 0.00 0.00 0.00 80 1019.6
20190116221917 47 129 3.0 9.0 0.00 0.00 0.00 80 1019.6
20190116221829 47 189 3.0 9.0 0.00 0.00 0.00 80 1019.6
20190116221719 47 165 4.0 9.0 0.00 0.00 0.00 80 1019.6
20190116221614 47 169 5.0 9.0 0.00 0.00 0.00 80 1019.7
20190116221525 47 165 5.0 9.0 0.00 0.00 0.00 80 1019.7
20190116221432 47 160 4.0 7.0 0.00 0.00 0.00 80 1019.7
20190116221323 47 207 4.0 8.0 0.00 0.00 0.00 80 1019.7
20190116221214 47 139 4.0 6.0 0.00 0.00 0.00 80 1019.7
20190116221130 47 186 4.0 6.0 0.00 0.00 0.00 80 1019.7
20190116221021 47 160 2.0 7.0 0.00 0.00 0.00 80 1019.7
20190116220925 47 160 1.0 7.0 0.00 0.00 0.00 80 1019.7
20190116220818 47 160 3.0 8.0 0.00 0.00 0.00 80 1019.7
20190116220728 47 161 4.0 8.0 0.00 0.00 0.00 80 1019.7
20190116220623 47 161 4.0 8.0 0.00 0.00 0.00 80 1019.7
20190116220531 47 156 4.0 8.0 0.00 0.00 0.00 80 1019.7
20190116220418 47 169 3.0 8.0 0.00 0.00 0.00 80 1019.7
20190116220349 47 169 3.0 8.0 0.00 0.00 0.00 80 1019.7
20190116220117 47 148 4.0 8.0 0.00 0.00 0.00 80 1019.8
20190116220032 47 123 5.0 8.0 0.00 0.00 0.00 79 1019.8
20190116215931 47 142 4.0 7.0 0.00 0.00 0.00 80 1019.8
20190116215828 47 150 4.0 7.0 0.00 0.00 0.00 80 1019.8
20190116215718 47 149 3.0 7.0 0.00 0.00 0.00 80 1019.8
20190116215629 47 170 3.0 7.0 0.00 0.00 0.00 80 1019.9
20190116215524 47 166 3.0 7.0 0.00 0.00 0.00 80 1019.9
20190116215431 47 166 3.0 7.0 0.00 0.00 0.00 80 1019.9
20190116215322 47 161 4.0 8.0 0.00 0.00 0.00 80 1020.0
20190116215213 47 147 3.0 8.0 0.00 0.00 0.00 80 1020.0
20190116215124 47 159 3.0 8.0 0.00 0.00 0.00 80 1019.9
20190116215019 47 159 3.0 8.0 0.00 0.00 0.00 80 1020.0
20190116214926 47 156 2.0 8.0 0.00 0.00 0.00 80 1019.9
20190116214818 47 156 4.0 8.0 0.00 0.00 0.00 80 1020.0
20190116214729 47 156 4.0 8.0 0.00 0.00 0.00 80 1019.9
20190116214620 47 164 4.0 8.0 0.00 0.00 0.00 80 1019.9
20190116214515 47 155 2.0 8.0 0.00 0.00 0.00 80 1019.9
20190116214422 47 141 2.0 7.0 0.00 0.00 0.00 80 1019.9
20190116214313 47 141 4.0 7.0 0.00 0.00 0.00 81 1019.9
20190116214224 47 134 4.0 7.0 0.00 0.00 0.00 81 1019.9
20190116214115 47 170 3.0 5.0 0.00 0.00 0.00 81 1019.9
20190116214026 47 175 3.0 4.0 0.00 0.00 0.00 81 1019.9
20190116213917 47 175 2.0 4.0 0.00 0.00 0.00 81 1019.9
20190116213829 47 175 1.0 4.0 0.00 0.00 0.00 81 1019.9
20190116213719 47 175 2.0 4.0 0.00 0.00 0.00 81 1019.9
20190116213630 47 175 3.0 4.0 0.00 0.00 0.00 81 1019.9
20190116213521 47 190 2.0 4.0 0.00 0.00 0.00 81 1019.9
20190116213432 47 196 1.0 6.0 0.00 0.00 0.00 81 1019.9
20190116213323 47 196 1.0 6.0 0.00 0.00 0.00 81 1019.9
20190116213214 47 196 1.0 6.0 0.00 0.00 0.00 81 1020.0
20190116213125 47 196 1.0 6.0 0.00 0.00 0.00 81 1020.0
20190116213016 47 196 2.0 6.0 0.00 0.00 0.00 81 1020.0
20190116212927 47 196 2.0 6.0 0.00 0.00 0.00 81 1019.9
20190116212819 47 196 2.0 6.0 0.00 0.00 0.00 81 1020.0
20190116212730 47 196 3.0 6.0 0.00 0.00 0.00 80 1019.9
20190116212621 47 196 4.0 6.0 0.00 0.00 0.00 80 1020.0
20190116212532 47 200 3.0 6.0 0.00 0.00 0.00 80 1020.0
20190116212423 47 225 3.0 5.0 0.00 0.00 0.00 80 1020.0
20190116212314 47 225 3.0 5.0 0.00 0.00 0.00 80 1019.9
20190116212225 47 224 3.0 5.0 0.00 0.00 0.00 80 1019.9
20190116212116 47 221 2.0 4.0 0.00 0.00 0.00 80 1019.9
20190116212027 47 221 2.0 5.0 0.00 0.00 0.00 80 1020.0
20190116211918 47 221 2.0 5.0 0.00 0.00 0.00 81 1019.9
20190116211830 47 221 3.0 5.0 0.00 0.00 0.00 81 1019.9
20190116211721 47 221 2.0 5.0 0.00 0.00 0.00 80 1019.9
20190116211632 47 221 2.0 5.0 0.00 0.00 0.00 81 1019.9
20190116211523 47 199 2.0 5.0 0.00 0.00 0.00 81 1019.9
20190116211415 47 199 2.0 5.0 0.00 0.00 0.00 81 1019.9
20190116211326 47 199 2.0 5.0 0.00 0.00 0.00 81 1019.9
20190116211217 47 199 3.0 7.0 0.00 0.00 0.00 81 1019.9
20190116211128 47 191 2.0 7.0 0.00 0.00 0.00 81 1019.9
20190116211019 47 226 3.0 7.0 0.00 0.00 0.00 81 1019.9
20190116210930 47 240 3.0 7.0 0.00 0.00 0.00 81 1019.9
20190116210822 47 227 3.0 7.0 0.00 0.00 0.00 81 1019.9
20190116210713 47 196 3.0 7.0 0.00 0.00 0.00 81 1019.9
20190116210624 47 188 3.0 7.0 0.00 0.00 0.00 81 1019.9
20190116210515 47 211 4.0 7.0 0.00 0.00 0.00 81 1019.9
20190116210426 46 197 4.0 7.0 0.00 0.00 0.00 80 1020.0
20190116210317 46 223 3.0 5.0 0.00 0.00 0.00 81 1020.0
20190116210228 46 203 2.0 5.0 0.00 0.00 0.00 81 1020.0
20190116210119 46 211 1.0 5.0 0.00 0.00 0.00 81 1020.0
20190116210030 46 211 1.0 7.0 0.00 0.00 0.00 81 1019.9
20190116205932 46 211 1.0 7.0 0.00 0.00 0.00 81 1019.9
20190116205830 46 211 1.0 7.0 0.00 0.00 0.00 81 1020.0
20190116205721 46 211 2.0 7.0 0.00 0.00 0.00 81 1020.0
20190116205632 46 211 3.0 7.0 0.00 0.00 0.00 81 1020.0
20190116205523 46 217 2.0 7.0 0.00 0.00 0.00 81 1020.0
20190116205414 46 152 3.0 7.0 0.00 0.00 0.00 81 1019.9
20190116205325 46 140 4.0 7.0 0.00 0.00 0.00 81 1020.0
20190116205216 46 142 3.0 6.0 0.00 0.00 0.00 81 1020.0
20190116205127 46 164 2.0 6.0 0.00 0.00 0.00 81 1020.1
20190116205018 46 188 1.0 6.0 0.00 0.00 0.00 81 1020.0
20190116204925 46 188 2.0 6.0 0.00 0.00 0.00 81 1020.0
20190116204818 46 187 3.0 6.0 0.00 0.00 0.00 81 1020.1
20190116204729 46 187 4.0 6.0 0.00 0.00 0.00 81 1020.1
20190116204620 46 180 3.0 7.0 0.00 0.00 0.00 81 1020.0
20190116204531 46 184 3.0 7.0 0.00 0.00 0.00 81 1020.0
20190116204418 46 164 3.0 7.0 0.00 0.00 0.00 81 1020.0
20190116204313 46 164 3.0 10.0 0.00 0.00 0.00 81 1020.0
20190116204224 46 180 2.0 10.0 0.00 0.00 0.00 81 1020.1
20190116204115 46 178 2.0 10.0 0.00 0.00 0.00 81 1020.0
20190116204026 46 178 2.0 10.0 0.00 0.00 0.00 81 1020.1
20190116203913 46 173 2.0 10.0 0.00 0.00 0.00 81 1020.1
20190116203829 46 210 3.0 10.0 0.00 0.00 0.00 81 1020.1
20190116203720 46 223 3.0 10.0 0.00 0.00 0.00 81 1020.1
20190116203631 46 190 5.0 10.0 0.00 0.00 0.00 81 1020.1
20190116203522 46 117 4.0 10.0 0.00 0.00 0.00 82 1020.2
20190116203429 46 156 2.0 8.0 0.00 0.00 0.00 82 1020.2
20190116203324 46 205 3.0 8.0 0.00 0.00 0.00 82 1020.2
20190116203215 46 205 3.0 8.0 0.00 0.00 0.00 82 1020.2
20190116203126 46 194 4.0 8.0 0.00 0.00 0.00 82 1020.3
20190116203017 46 184 3.0 8.0 0.00 0.00 0.00 82 1020.2
20190116202924 46 175 2.0 8.0 0.00 0.00 0.00 82 1020.2
20190116202820 46 169 4.0 8.0 0.00 0.00 0.00 82 1020.2
20190116202731 46 169 5.0 8.0 0.00 0.00 0.00 82 1020.3
20190116202623 46 164 4.0 7.0 0.00 0.00 0.00 82 1020.3
20190116202514 46 178 2.0 8.0 0.00 0.00 0.00 82 1020.3
20190116202421 46 123 2.0 8.0 0.00 0.00 0.00 82 1020.3
20190116202316 46 122 2.0 8.0 0.00 0.00 0.00 82 1020.4
20190116202227 46 175 2.0 8.0 0.00 0.00 0.00 82 1020.4
20190116202118 46 175 3.0 8.0 0.00 0.00 0.00 82 1020.3
20190116202029 46 178 5.0 8.0 0.00 0.00 0.00 82 1020.3
20190116201916 45 163 3.0 7.0 0.00 0.00 0.00 82 1020.3
20190116201832 45 161 2.0 7.0 0.00 0.00 0.00 82 1020.4
20190116201723 45 190 2.0 7.0 0.00 0.00 0.00 82 1020.4
20190116201614 45 190 4.0 7.0 0.00 0.00 0.00 82 1020.4
20190116201525 45 156 4.0 7.0 0.00 0.00 0.00 82 1020.4
20190116201413 45 156 3.0 7.0 0.00 0.00 0.00 82 1020.3
20190116201328 45 165 2.0 5.0 0.00 0.00 0.00 82 1020.3
20190116201219 45 165 3.0 7.0 0.00 0.00 0.00 82 1020.3
20190116201130 45 165 3.0 7.0 0.00 0.00 0.00 82 1020.3
20190116201021 45 165 3.0 8.0 0.00 0.00 0.00 82 1020.3
20190116200928 45 165 3.0 8.0 0.00 0.00 0.00 83 1020.3
20190116200824 45 165 2.0 8.0 0.00 0.00 0.00 82 1020.3
20190116200735 45 165 4.0 8.0 0.00 0.00 0.00 82 1020.4
20190116200623 45 144 4.0 8.0 0.00 0.00 0.00 82 1020.4
20190116200514 45 140 4.0 8.0 0.00 0.00 0.00 83 1020.4
20190116200421 45 141 3.0 8.0 0.00 0.00 0.00 83 1020.4
20190116200316 45 140 4.0 8.0 0.00 0.00 0.00 83 1020.4
20190116200227 45 140 3.0 8.0 0.00 0.00 0.00 83 1020.4
20190116200118 45 169 2.0 6.0 0.00 0.00 0.00 83 1020.4
20190116200029 45 169 3.0 6.0 0.00 0.00 0.00 83 1020.3
20190116195927 45 169 3.0 6.0 0.00 0.00 0.00 83 1020.4
20190116195825 45 153 2.0 6.0 0.00 0.00 0.00 83 1020.4
20190116195720 45 173 3.0 4.0 0.00 0.00 0.00 83 1020.5
20190116195631 45 172 3.0 5.0 0.00 0.00 0.00 83 1020.5
20190116195522 45 172 3.0 7.0 0.00 0.00 0.00 83 1020.5
20190116195430 45 161 2.0 7.0 0.00 0.00 0.00 83 1020.5
20190116195321 45 161 1.0 7.0 0.00 0.00 0.00 83 1020.5
20190116195217 45 161 2.0 7.0 0.00 0.00 0.00 83 1020.5
20190116195128 45 161 3.0 7.0 0.00 0.00 0.00 83 1020.5
20190116195019 45 161 4.0 7.0 0.00 0.00 0.00 83 1020.5
20190116194926 45 171 4.0 7.0 0.00 0.00 0.00 83 1020.6
20190116194817 45 172 4.0 7.0 0.00 0.00 0.00 83 1020.6
20190116194732 45 162 4.0 7.0 0.00 0.00 0.00 83 1020.6
20190116194623 45 207 3.0 5.0 0.00 0.00 0.00 83 1020.6
20190116194514 45 207 2.0 6.0 0.00 0.00 0.00 83 1020.6
20190116194422 45 190 2.0 6.0 0.00 0.00 0.00 83 1020.6
20190116194313 45 190 3.0 6.0 0.00 0.00 0.00 83 1020.6
20190116194228 45 190 3.0 6.0 0.00 0.00 0.00 83 1020.7
20190116194119 45 131 2.0 6.0 0.00 0.00 0.00 83 1020.8
20190116194030 45 131 3.0 6.0 0.00 0.00 0.00 83 1020.8
20190116193917 45 131 3.0 6.0 0.00 0.00 0.00 83 1020.9
20190116193828 45 208 3.0 6.0 0.00 0.00 0.00 83 1020.8
20190116193723 45 242 4.0 6.0 0.00 0.00 0.00 83 1020.8
20190116193614 45 225 4.0 6.0 0.00 0.00 0.00 83 1020.7
20190116193525 45 196 4.0 5.0 0.00 0.00 0.00 83 1020.7
20190116193432 45 201 3.0 6.0 0.00 0.00 0.00 84 1020.6
20190116193323 45 164 2.0 6.0 0.00 0.00 0.00 84 1020.6
20190116193218 45 164 2.0 6.0 0.00 0.00 0.00 84 1020.5
20190116193129 45 164 3.0 7.0 0.00 0.00 0.00 84 1020.5
20190116193020 45 164 2.0 7.0 0.00 0.00 0.00 84 1020.6
20190116192927 45 143 1.0 8.0 0.00 0.00 0.00 84 1020.6
20190116192819 45 143 1.0 8.0 0.00 0.00 0.00 84 1020.6
20190116192714 45 143 2.0 8.0 0.00 0.00 0.00 84 1020.7
20190116192625 45 143 1.0 8.0 0.00 0.00 0.00 84 1020.7
20190116192516 45 143 1.0 8.0 0.00 0.00 0.00 84 1020.8
20190116192423 45 143 2.0 8.0 0.00 0.00 0.00 84 1020.8
20190116192314 45 143 4.0 8.0 0.00 0.00 0.00 84 1020.8
20190116192229 45 154 5.0 8.0 0.00 0.00 0.00 84 1020.8
20190116192120 44 143 4.0 8.0 0.00 0.00 0.00 84 1020.7
20190116192031 44 161 2.0 5.0 0.00 0.00 0.00 85 1020.7
20190116191918 44 161 1.0 5.0 0.00 0.00 0.00 85 1020.7
20190116191830 44 161 1.0 5.0 0.00 0.00 0.00 85 1020.7
20190116191726 44 161 2.0 5.0 0.00 0.00 0.00 85 1020.8
20190116191617 44 161 3.0 5.0 0.00 0.00 0.00 85 1020.8
20190116191527 44 167 2.0 5.0 0.00 0.00 0.00 85 1020.9
20190116191414 44 167 2.0 5.0 0.00 0.00 0.00 85 1020.9
20190116191325 44 167 3.0 5.0 0.00 0.00 0.00 85 1020.9
20190116191220 44 167 3.0 6.0 0.00 0.00 0.00 85 1020.9
20190116191131 44 167 2.0 6.0 0.00 0.00 0.00 85 1020.8
20190116191022 44 167 2.0 6.0 0.00 0.00 0.00 85 1020.9
20190116190930 44 167 3.0 6.0 0.00 0.00 0.00 85 1020.9
20190116190822 44 163 3.0 6.0 0.00 0.00 0.00 85 1020.9
20190116190717 44 155 2.0 6.0 0.00 0.00 0.00 85 1021.0
20190116190628 44 155 2.0 6.0 0.00 0.00 0.00 85 1021.0
20190116190519 44 155 3.0 6.0 0.00 0.00 0.00 85 1021.0
20190116190426 44 155 3.0 6.0 0.00 0.00 0.00 85 1021.1
20190116190317 44 155 2.0 5.0 0.00 0.00 0.00 85 1021.0
20190116190228 44 155 2.0 5.0 0.00 0.00 0.00 85 1021.1
20190116190123 44 157 2.0 5.0 0.00 0.00 0.00 85 1021.2
20190116190014 44 157 2.0 5.0 0.00 0.00 0.00 85 1021.2
20190116185932 44 157 2.0 5.0 0.00 0.00 0.00 85 1021.2
20190116185830 44 154 3.0 5.0 0.00 0.00 0.00 85 1021.3
20190116185721 44 153 3.0 5.0 0.00 0.00 0.00 85 1021.3
20190116185616 44 153 3.0 5.0 0.00 0.00 0.00 85 1021.4
20190116185527 44 168 2.0 7.0 0.00 0.00 0.00 85 1021.4
20190116185414 44 168 3.0 7.0 0.00 0.00 0.00 85 1021.4
20190116185324 44 168 3.0 7.0 0.00 0.00 0.00 85 1021.4
20190116185215 44 167 1.0 7.0 0.00 0.00 0.00 85 1021.4
20190116185131 44 169 1.0 7.0 0.00 0.00 0.00 85 1021.4
20190116185022 44 169 2.0 7.0 0.00 0.00 0.00 85 1021.4
20190116184929 44 169 2.0 7.0 0.00 0.00 0.00 85 1021.4
20190116184821 44 143 2.0 7.0 0.00 0.00 0.00 85 1021.4
20190116184732 44 143 3.0 7.0 0.00 0.00 0.00 85 1021.4
20190116184627 44 143 2.0 6.0 0.00 0.00 0.00 85 1021.4
20190116184517 44 116 1.0 4.0 0.00 0.00 0.00 85 1021.4
20190116184316 43 198 1.0 5.0 0.00 0.00 0.00 85 1021.5
20190116184227 43 198 1.0 8.0 0.00 0.00 0.00 85 1021.5
20190116184121 43 198 1.0 8.0 0.00 0.00 0.00 85 1021.6
20190116184012 43 198 1.0 8.0 0.00 0.00 0.00 85 1021.6
20190116183920 43 142 1.0 8.0 0.00 0.00 0.00 85 1021.7
20190116183813 43 142 2.0 8.0 0.00 0.00 0.00 85 1021.7
20190116183723 43 142 2.0 8.0 0.00 0.00 0.00 85 1021.8
20190116183619 43 142 4.0 8.0 0.00 0.00 0.00 85 1021.7
20190116183530 43 141 5.0 8.0 0.00 0.00 0.00 85 1021.7
20190116183417 43 150 4.0 8.0 0.00 0.00 0.00 85 1021.7
20190116183328 43 188 3.0 7.0 0.00 0.00 0.00 85 1021.8
20190116183219 43 157 3.0 8.0 0.00 0.00 0.00 85 1021.8
20190116183114 43 157 2.0 8.0 0.00 0.00 0.00 85 1021.9
20190116183025 43 128 2.0 8.0 0.00 0.00 0.00 85 1021.8
20190116182932 43 155 2.0 8.0 0.00 0.00 0.00 85 1021.9
20190116182825 43 156 3.0 8.0 0.00 0.00 0.00 85 1021.9
20190116182714 43 155 4.0 8.0 0.00 0.00 0.00 85 1021.9
20190116182629 43 156 4.0 8.0 0.00 0.00 0.00 85 1021.9
20190116182520 43 146 5.0 8.0 0.00 0.00 0.00 85 1022.0
20190116182426 43 161 5.0 8.0 0.00 0.00 0.00 85 1022.1
20190116182317 43 150 5.0 7.0 0.00 0.00 0.00 85 1022.2
20190116182228 43 173 4.0 7.0 0.00 0.00 0.00 85 1022.3
20190116182124 43 188 4.0 6.0 0.00 0.00 0.00 85 1022.3
20190116182015 43 195 4.0 6.0 0.00 0.00 0.00 85 1022.3
20190116181921 43 200 4.0 6.0 0.00 0.00 0.00 85 1022.4
20190116181813 43 209 3.0 6.0 0.00 0.00 0.00 85 1022.4
20190116181724 43 175 2.0 4.0 0.00 0.00 0.00 85 1022.4
20190116181620 43 175 2.0 4.0 0.00 0.00 0.00 85 1022.5
20190116181530 43 175 2.0 4.0 0.00 0.00 0.00 85 1022.5
20190116181418 43 175 3.0 5.0 0.00 0.00 0.00 85 1022.4
20190116181329 43 170 2.0 5.0 0.00 0.00 0.00 85 1022.4
20190116181221 43 182 2.0 5.0 0.00 0.00 0.00 85 1022.5
20190116181116 43 182 1.0 5.0 0.00 0.00 0.00 85 1022.5
20190116181026 43 182 0.0 5.0 0.00 0.00 0.00 85 1022.5
20190116180914 43 164 0.0 5.0 0.00 0.00 0.00 85 1022.5
20190116180825 43 164 0.0 5.0 0.00 0.00 0.00 85 1022.6
20190116180716 43 164 3.0 5.0 0.00 0.00 0.00 85 1022.7
20190116180626 43 164 3.0 5.0 0.00 0.00 0.00 85 1022.7
20190116180521 43 164 2.0 3.0 0.00 0.00 0.00 85 1022.7
20190116180428 43 164 2.0 4.0 0.00 0.00 0.00 85 1022.7
20190116180319 43 169 1.0 3.0 0.00 0.00 0.00 85 1022.7
20190116180230 43 169 2.0 3.0 0.00 0.00 0.00 85 1022.7
20190116180121 43 169 3.0 4.0 0.00 0.00 0.00 85 1022.7
20190116180015 43 169 3.0 3.0 0.00 0.00 0.00 85 1022.7
20190116175933 43 169 2.0 3.0 0.00 0.00 0.00 85 1022.8
20190116175831 43 169 1.0 3.0 0.00 0.00 0.00 85 1022.8
20190116175722 43 169 1.0 3.0 0.00 0.00 0.00 85 1022.9
20190116175613 43 169 2.0 3.0 0.00 0.00 0.00 85 1022.9
20190116175527 43 169 2.0 4.0 0.00 0.00 0.00 85 1022.9
20190116175415 43 169 1.0 4.0 0.00 0.00 0.00 85 1023.0
20190116175325 43 169 1.0 5.0 0.00 0.00 0.00 85 1023.1
20190116175216 43 169 1.0 5.0 0.00 0.00 0.00 85 1023.1
20190116175127 43 169 1.0 5.0 0.00 0.00 0.00 85 1023.1
20190116175022 43 169 1.0 5.0 0.00 0.00 0.00 85 1023.1
20190116174930 43 169 2.0 5.0 0.00 0.00 0.00 85 1023.2
20190116174822 43 169 2.0 5.0 0.00 0.00 0.00 85 1023.3
20190116174713 43 209 3.0 5.0 0.00 0.00 0.00 85 1023.3
20190116174624 43 204 4.0 5.0 0.00 0.00 0.00 85 1023.4
20190116174519 43 195 3.0 5.0 0.00 0.00 0.00 85 1023.4
20190116174426 43 194 3.0 5.0 0.00 0.00 0.00 85 1023.5
20190116174317 43 182 2.0 5.0 0.00 0.00 0.00 85 1023.4
20190116174227 43 182 2.0 5.0 0.00 0.00 0.00 85 1023.4
20190116174119 43 182 1.0 5.0 0.00 0.00 0.00 85 1023.4
20190116174014 42 182 2.0 5.0 0.00 0.00 0.00 85 1023.5
20190116173921 42 182 3.0 5.0 0.00 0.00 0.00 85 1023.5
20190116173813 42 182 3.0 5.0 0.00 0.00 0.00 85 1023.5
20190116173724 42 170 3.0 4.0 0.00 0.00 0.00 85 1023.6
20190116173615 42 170 3.0 5.0 0.00 0.00 0.00 85 1023.6
20190116173530 42 171 2.0 4.0 0.00 0.00 0.00 85 1023.6
20190116173417 42 179 2.0 3.0 0.00 0.00 0.00 85 1023.6
20190116173327 42 179 2.0 4.0 0.00 0.00 0.00 85 1023.6
20190116173219 42 179 1.0 4.0 0.00 0.00 0.00 85 1023.6
20190116173130 42 179 1.0 5.0 0.00 0.00 0.00 85 1023.6
20190116173025 42 179 1.0 5.0 0.00 0.00 0.00 85 1023.7
20190116172912 42 179 1.0 5.0 0.00 0.00 0.00 85 1023.7
20190116172825 42 179 2.0 5.0 0.00 0.00 0.00 85 1023.7
20190116172716 42 179 2.0 5.0 0.00 0.00 0.00 85 1023.8
20190116172627 42 179 2.0 5.0 0.00 0.00 0.00 85 1023.8
20190116172523 42 171 2.0 5.0 0.00 0.00 0.00 85 1023.9
20190116172430 42 168 3.0 5.0 0.00 0.00 0.00 85 1023.9
20190116172321 42 192 3.0 5.0 0.00 0.00 0.00 85 1023.9
20190116172231 42 195 3.0 5.0 0.00 0.00 0.00 85 1023.9
20190116172123 42 180 3.0 6.0 0.00 0.00 0.00 85 1023.9
20190116172017 42 214 3.0 6.0 0.00 0.00 0.00 85 1023.9
20190116171925 42 157 4.0 6.0 0.00 0.00 0.00 85 1023.9
20190116171814 42 155 4.0 6.0 0.00 0.00 0.00 85 1023.9
20190116171724 42 178 3.0 5.0 0.00 0.00 0.00 84 1023.9
20190116171615 42 178 3.0 5.0 0.00 0.00 0.00 85 1024.0
20190116171526 42 178 3.0 5.0 0.00 0.00 0.00 85 1024.0
20190116171417 42 175 3.0 5.0 0.00 0.00 0.00 85 1024.0
20190116171329 42 173 2.0 5.0 0.00 0.00 0.00 85 1024.0
20190116171219 42 166 2.0 5.0 0.00 0.00 0.00 85 1024.1
20190116171131 42 176 2.0 5.0 0.00 0.00 0.00 85 1024.0
20190116171022 42 176 2.0 5.0 0.00 0.00 0.00 85 1024.0
20190116170913 42 176 2.0 5.0 0.00 0.00 0.00 85 1023.9
20190116170825 42 175 3.0 6.0 0.00 0.00 0.00 85 1023.9
20190116170715 42 175 4.0 6.0 0.00 0.00 0.00 84 1024.0
20190116170626 42 171 4.0 6.0 0.00 0.00 0.00 85 1024.0
20190116170518 42 166 3.0 6.0 0.00 0.00 0.00 85 1024.0
20190116170320 42 188 1.0 6.0 0.00 0.00 0.00 85 1024.0
20190116170231 42 188 2.0 6.0 0.00 0.00 0.00 85 1024.0
20190116170122 42 188 3.0 6.0 0.00 0.00 0.00 85 1024.1
20190116170013 42 194 3.0 6.0 0.00 0.00 0.00 85 1024.0
20190116165935 42 145 2.0 5.0 0.00 0.00 0.00 85 1024.1
20190116165831 42 135 4.0 5.0 0.00 0.00 0.00 84 1024.1
20190116165721 42 178 4.0 6.0 0.00 0.00 0.00 85 1024.0
20190116165612 42 161 4.0 6.0 0.00 0.00 0.00 85 1024.0
20190116165524 42 163 4.0 6.0 0.00 0.00 0.00 85 1024.0
20190116165415 42 163 4.0 6.0 0.00 0.00 0.00 85 1024.1
20190116165327 42 161 3.0 6.0 0.00 0.00 0.00 85 1024.1
20190116165217 42 161 2.0 6.0 0.00 0.00 0.00 85 1024.1
20190116165129 42 164 2.0 6.0 0.00 0.00 0.00 85 1024.1
20190116165019 42 164 3.0 6.0 0.00 0.00 0.00 85 1024.1
20190116164931 42 163 2.0 6.0 0.00 0.00 0.00 85 1024.1
20190116164824 42 163 1.0 6.0 0.00 0.00 0.00 85 1024.1
20190116164715 42 163 2.0 6.0 0.00 0.00 0.00 85 1024.1
20190116164625 42 168 3.0 6.0 0.00 0.00 0.00 85 1024.1
20190116164517 42 154 2.0 6.0 0.00 0.00 0.00 85 1024.1
20190116164428 42 179 2.0 3.0 0.00 0.00 0.00 85 1024.2
20190116164320 42 179 1.0 3.0 0.00 0.00 0.00 85 1024.2
20190116164232 42 179 1.0 3.0 0.00 0.00 0.00 85 1024.2
20190116164122 42 179 2.0 4.0 0.00 0.00 0.00 85 1024.2
20190116164013 42 179 1.0 4.0 0.00 0.00 0.00 85 1024.2
20190116163925 42 181 1.0 4.0 0.00 0.00 0.00 85 1024.2
20190116163817 42 181 2.0 4.0 0.00 0.00 0.00 85 1024.3
20190116163729 42 181 2.0 4.0 0.00 0.00 0.00 85 1024.3
20190116163619 42 181 1.0 4.0 0.00 0.00 0.00 85 1024.3
20190116163530 42 181 0.0 4.0 0.00 0.00 0.00 85 1024.3
20190116163422 42 181 2.0 4.0 0.00 0.00 0.00 85 1024.4
20190116163312 42 181 3.0 4.0 0.00 0.00 0.00 85 1024.3
20190116163223 42 170 3.0 4.0 0.00 0.00 0.00 85 1024.3
20190116163115 42 169 2.0 5.0 0.00 0.00 0.00 85 1024.3
20190116163027 42 165 2.0 5.0 0.00 0.00 0.00 85 1024.3
20190116162918 42 165 2.0 5.0 0.00 0.00 0.00 85 1024.3
20190116162831 42 165 3.0 5.0 0.00 0.00 0.00 85 1024.2
20190116162722 42 165 2.0 5.0 0.00 0.00 0.00 85 1024.2
20190116162613 41 163 1.0 4.0 0.00 0.00 0.00 85 1024.2
20190116162523 41 146 2.0 3.0 0.00 0.00 0.00 85 1024.1
20190116162415 41 146 1.0 4.0 0.00 0.00 0.00 85 1024.2
20190116162325 41 146 1.0 4.0 0.00 0.00 0.00 85 1024.1
20190116162216 41 146 2.0 4.0 0.00 0.00 0.00 85 1024.2
20190116162128 41 146 2.0 4.0 0.00 0.00 0.00 85 1024.3
20190116162018 41 146 2.0 4.0 0.00 0.00 0.00 85 1024.2
20190116161926 41 146 2.0 4.0 0.00 0.00 0.00 85 1024.2
20190116161822 41 146 2.0 4.0 0.00 0.00 0.00 85 1024.2
20190116161713 41 146 2.0 4.0 0.00 0.00 0.00 85 1024.0
20190116161623 41 146 2.0 5.0 0.00 0.00 0.00 85 1024.1
20190116161516 41 146 2.0 5.0 0.00 0.00 0.00 85 1024.2
20190116161423 41 146 2.0 7.0 0.00 0.00 0.00 85 1024.1
20190116161319 41 146 2.0 7.0 0.00 0.00 0.00 85 1024.1
20190116161229 41 148 2.0 7.0 0.00 0.00 0.00 85 1024.1
20190116161120 41 108 2.0 7.0 0.00 0.00 0.00 85 1024.0
20190116161031 41 108 3.0 7.0 0.00 0.00 0.00 85 1024.1
20190116160919 41 138 4.0 7.0 0.00 0.00 0.00 85 1024.2
20190116160815 41 150 4.0 7.0 0.00 0.00 0.00 85 1024.2
20190116160726 41 130 4.0 7.0 0.00 0.00 0.00 85 1024.2
20190116160618 41 152 3.0 7.0 0.00 0.00 0.00 85 1024.1
20190116160528 41 155 3.0 6.0 0.00 0.00 0.00 85 1024.1
20190116160417 41 164 3.0 5.0 0.00 0.00 0.00 85 1024.2
20190116160312 41 165 3.0 4.0 0.00 0.00 0.00 85 1024.2
20190116160223 41 185 2.0 4.0 0.00 0.00 0.00 85 1024.3
20190116160114 41 183 2.0 5.0 0.00 0.00 0.00 85 1024.3
20190116160026 41 183 1.0 5.0 0.00 0.00 0.00 85 1024.3
20190116155944 41 183 1.0 5.0 0.00 0.00 0.00 85 1024.3
20190116155826 41 205 2.0 5.0 0.00 0.00 0.00 85 1024.4
20190116155717 41 165 2.0 5.0 0.00 0.00 0.00 85 1024.4
20190116155628 41 165 3.0 5.0 0.00 0.00 0.00 85 1024.3
20190116155519 41 165 3.0 5.0 0.00 0.00 0.00 85 1024.3
20190116155426 41 150 3.0 5.0 0.00 0.00 0.00 85 1024.3
20190116155321 41 150 3.0 5.0 0.00 0.00 0.00 85 1024.2
20190116155212 41 167 3.0 6.0 0.00 0.00 0.00 85 1024.2
20190116155124 41 167 2.0 6.0 0.00 0.00 0.00 85 1024.2
20190116155015 41 155 3.0 6.0 0.00 0.00 0.00 85 1024.2
20190116154923 41 155 3.0 6.0 0.00 0.00 0.00 85 1024.3
20190116154819 41 155 3.0 6.0 0.00 0.00 0.00 85 1024.3
20190116154730 41 174 3.0 6.0 0.00 0.00 0.00 85 1024.4
20190116154620 41 179 3.0 6.0 0.00 0.00 0.00 85 1024.3
20190116154532 41 179 4.0 6.0 0.00 0.00 0.00 85 1024.3
20190116154419 41 155 3.0 6.0 0.00 0.00 0.00 85 1024.2
20190116154314 41 170 2.0 5.0 0.00 0.00 0.00 85 1024.2
20190116154225 41 170 3.0 5.0 0.00 0.00 0.00 85 1024.2
20190116154115 41 173 3.0 6.0 0.00 0.00 0.00 85 1024.3
20190116154026 41 158 3.0 5.0 0.00 0.00 0.00 85 1024.2
20190116153914 40 159 3.0 5.0 0.00 0.00 0.00 86 1024.2
20190116153830 40 159 3.0 5.0 0.00 0.00 0.00 85 1024.2
20190116153720 40 163 3.0 5.0 0.00 0.00 0.00 86 1024.2
20190116153631 40 163 2.0 5.0 0.00 0.00 0.00 86 1024.3
20190116153522 40 179 1.0 4.0 0.00 0.00 0.00 86 1024.3
20190116153431 40 179 2.0 4.0 0.00 0.00 0.00 85 1024.4
20190116153325 40 179 3.0 4.0 0.00 0.00 0.00 85 1024.3
20190116153218 40 179 2.0 5.0 0.00 0.00 0.00 86 1024.3
20190116153129 40 179 2.0 5.0 0.00 0.00 0.00 86 1024.3
20190116153021 40 179 2.0 5.0 0.00 0.00 0.00 86 1024.3
20190116152928 40 179 3.0 5.0 0.00 0.00 0.00 86 1024.3
20190116152825 40 179 3.0 5.0 0.00 0.00 0.00 86 1024.4
20190116152716 40 179 3.0 5.0 0.00 0.00 0.00 86 1024.5
20190116152626 40 181 3.0 5.0 0.00 0.00 0.00 86 1024.4
20190116152518 40 218 4.0 5.0 0.00 0.00 0.00 86 1024.5
20190116152424 40 190 3.0 5.0 0.00 0.00 0.00 86 1024.5
20190116152321 40 188 3.0 4.0 0.00 0.00 0.00 86 1024.5
20190116152231 40 176 3.0 4.0 0.00 0.00 0.00 86 1024.5
20190116152122 40 198 3.0 4.0 0.00 0.00 0.00 86 1024.4
20190116152015 40 198 3.0 4.0 0.00 0.00 0.00 86 1024.4
20190116151922 40 196 3.0 4.0 0.00 0.00 0.00 86 1024.4
20190116151818 40 195 2.0 4.0 0.00 0.00 0.00 86 1024.4
20190116151729 40 196 2.0 4.0 0.00 0.00 0.00 86 1024.4
20190116151619 40 195 3.0 4.0 0.00 0.00 0.00 86 1024.4
20190116151532 40 196 3.0 4.0 0.00 0.00 0.00 86 1024.3
20190116151419 40 195 2.0 4.0 0.00 0.00 0.00 86 1024.3
20190116151315 40 196 2.0 4.0 0.00 0.00 0.00 86 1024.3
20190116151225 40 196 3.0 4.0 0.00 0.00 0.00 86 1024.3
20190116151118 40 196 3.0 4.0 0.00 0.00 0.00 86 1024.3
20190116151028 40 196 2.0 4.0 0.00 0.00 0.00 86 1024.3
20190116150916 40 177 2.0 4.0 0.00 0.00 0.00 86 1024.3
20190116150813 40 180 2.0 4.0 0.00 0.00 0.00 86 1024.3
20190116150724 40 180 2.0 4.0 0.00 0.00 0.00 86 1024.3
20190116150615 40 180 2.0 4.0 0.00 0.00 0.00 86 1024.3
20190116150527 40 180 2.0 4.0 0.00 0.00 0.00 86 1024.3
20190116150414 40 172 2.0 4.0 0.00 0.00 0.00 86 1024.3
20190116150325 40 172 2.0 4.0 0.00 0.00 0.00 86 1024.3
20190116150219 40 172 1.0 4.0 0.00 0.00 0.00 86 1024.3
20190116150130 40 172 1.0 4.0 0.00 0.00 0.00 86 1024.3
20190116150023 40 172 2.0 4.0 0.00 0.00 0.00 86 1024.3
20190116145940 40 172 2.0 4.0 0.00 0.00 0.00 86 1024.2
20190116145818 40 172 2.0 4.0 0.00 0.00 0.00 86 1024.1
20190116145712 40 172 2.0 4.0 0.00 0.00 0.00 86 1024.1
20190116145624 40 172 2.0 5.0 0.00 0.00 0.00 86 1024.2
20190116145515 40 180 2.0 3.0 0.00 0.00 0.00 86 1024.1
20190116145422 40 180 2.0 3.0 0.00 0.00 0.00 86 1024.2
20190116145312 40 180 1.0 3.0 0.00 0.00 0.00 86 1024.2
20190116145227 40 180 1.0 3.0 0.00 0.00 0.00 86 1024.1
20190116145118 40 180 2.0 3.0 0.00 0.00 0.00 86 1024.1
20190116145029 40 180 1.0 3.0 0.00 0.00 0.00 86 1024.1
20190116144917 40 180 1.0 3.0 0.00 0.00 0.00 86 1024.1
20190116144829 40 180 1.0 3.0 0.00 0.00 0.00 86 1024.1
20190116144723 40 180 1.0 3.0 0.00 0.00 0.00 86 1024.1
20190116144614 40 180 2.0 3.0 0.00 0.00 0.00 86 1024.1
20190116144526 40 180 2.0 3.0 0.00 0.00 0.00 86 1024.1
20190116144414 40 180 1.0 3.0 0.00 0.00 0.00 86 1024.0
20190116144324 40 179 2.0 3.0 0.00 0.00 0.00 86 1024.0
20190116144219 40 179 1.0 3.0 0.00 0.00 0.00 86 1024.0
20190116144131 40 179 1.0 3.0 0.00 0.00 0.00 86 1024.0
20190116144022 40 179 2.0 4.0 0.00 0.00 0.00 86 1024.0
20190116143931 40 179 2.0 4.0 0.00 0.00 0.00 86 1024.0
20190116143823 40 180 2.0 4.0 0.00 0.00 0.00 86 1024.0
20190116143717 40 185 1.0 4.0 0.00 0.00 0.00 86 1024.0
20190116143628 40 185 1.0 4.0 0.00 0.00 0.00 86 1024.0
20190116143520 40 185 1.0 4.0 0.00 0.00 0.00 86 1024.0
20190116143428 40 185 2.0 4.0 0.00 0.00 0.00 86 1024.1
20190116143318 40 185 2.0 4.0 0.00 0.00 0.00 86 1024.1
20190116143213 40 185 2.0 4.0 0.00 0.00 0.00 86 1024.0
20190116143126 40 185 2.0 4.0 0.00 0.00 0.00 86 1024.0
20190116143016 40 185 2.0 4.0 0.00 0.00 0.00 86 1024.0
20190116142923 40 185 2.0 4.0 0.00 0.00 0.00 86 1024.0
20190116142816 40 185 2.0 4.0 0.00 0.00 0.00 86 1024.0
20190116142731 40 196 2.0 4.0 0.00 0.00 0.00 86 1024.0
20190116142621 40 196 3.0 5.0 0.00 0.00 0.00 86 1024.0
20190116142512 40 203 2.0 5.0 0.00 0.00 0.00 86 1024.0
20190116142420 40 192 2.0 5.0 0.00 0.00 0.00 86 1024.0
20190116142330 40 192 2.0 5.0 0.00 0.00 0.00 86 1023.9
20190116142226 40 192 1.0 5.0 0.00 0.00 0.00 86 1023.9
20190116142118 40 192 1.0 5.0 0.00 0.00 0.00 86 1023.9
20190116142030 40 192 2.0 5.0 0.00 0.00 0.00 86 1023.9
20190116141917 40 192 2.0 5.0 0.00 0.00 0.00 86 1023.9
20190116141725 39 182 2.0 4.0 0.00 0.00 0.00 86 1023.9
20190116141615 39 182 2.0 4.0 0.00 0.00 0.00 86 1023.9
20190116141526 39 178 2.0 5.0 0.00 0.00 0.00 86 1023.8
20190116141413 39 172 1.0 5.0 0.00 0.00 0.00 86 1023.7
20190116141326 39 172 0.0 5.0 0.00 0.00 0.00 86 1023.7
20190116141220 39 172 1.0 5.0 0.00 0.00 0.00 86 1023.8
20190116141131 39 172 1.0 5.0 0.00 0.00 0.00 86 1023.8
20190116141022 39 172 2.0 5.0 0.00 0.00 0.00 86 1023.7
20190116140929 39 172 3.0 5.0 0.00 0.00 0.00 86 1023.7
20190116140822 39 159 4.0 5.0 0.00 0.00 0.00 87 1023.7
20190116140717 39 159 4.0 5.0 0.00 0.00 0.00 86 1023.7
20190116140627 39 159 3.0 5.0 0.00 0.00 0.00 86 1023.7
20190116140518 39 159 3.0 5.0 0.00 0.00 0.00 86 1023.8
20190116140425 39 166 3.0 5.0 0.00 0.00 0.00 87 1023.8
20190116140316 39 166 2.0 5.0 0.00 0.00 0.00 87 1023.8
20190116140227 39 166 2.0 5.0 0.00 0.00 0.00 87 1023.8
20190116140124 39 166 3.0 5.0 0.00 0.00 0.00 87 1023.8
20190116140014 39 165 2.0 5.0 0.00 0.00 0.00 87 1023.8
20190116135932 39 165 2.0 6.0 0.00 0.00 0.00 87 1023.8
20190116135831 39 183 2.0 6.0 0.00 0.00 0.00 87 1023.8
20190116135721 39 183 3.0 6.0 0.00 0.00 0.00 87 1023.8
20190116135617 39 183 3.0 6.0 0.00 0.00 0.00 87 1023.8
20190116135528 39 180 2.0 6.0 0.00 0.00 0.00 87 1023.9
20190116135415 39 180 3.0 6.0 0.00 0.00 0.00 87 1023.9
20190116135326 39 200 3.0 6.0 0.00 0.00 0.00 87 1023.9
20190116135217 39 161 3.0 6.0 0.00 0.00 0.00 87 1024.0
20190116135113 39 166 3.0 6.0 0.00 0.00 0.00 87 1024.0
20190116135024 39 186 4.0 6.0 0.00 0.00 0.00 87 1024.0
20190116134932 39 202 4.0 6.0 0.00 0.00 0.00 87 1024.0
20190116134822 39 196 4.0 6.0 0.00 0.00 0.00 87 1024.0
20190116134712 39 198 4.0 6.0 0.00 0.00 0.00 86 1024.0
20190116134627 39 190 4.0 6.0 0.00 0.00 0.00 86 1023.9
20190116134519 39 189 5.0 6.0 0.00 0.00 0.00 86 1023.9
20190116134427 39 194 5.0 6.0 0.00 0.00 0.00 87 1024.0
20190116134320 39 209 4.0 7.0 0.00 0.00 0.00 86 1024.0
20190116134230 39 189 4.0 7.0 0.00 0.00 0.00 86 1024.0
20190116134126 39 197 5.0 7.0 0.00 0.00 0.00 87 1024.0
20190116134018 39 213 5.0 7.0 0.00 0.00 0.00 87 1024.0
20190116133925 39 192 4.0 7.0 0.00 0.00 0.00 87 1023.9
20190116133818 39 198 5.0 7.0 0.00 0.00 0.00 87 1023.8
20190116133728 39 200 4.0 7.0 0.00 0.00 0.00 87 1023.8
20190116133624 39 196 4.0 7.0 0.00 0.00 0.00 87 1023.9
20190116133515 39 186 5.0 7.0 0.00 0.00 0.00 87 1023.9
20190116133423 39 193 4.0 6.0 0.00 0.00 0.00 87 1023.8
20190116133314 39 188 4.0 6.0 0.00 0.00 0.00 87 1023.9
20190116133225 39 188 5.0 6.0 0.00 0.00 0.00 87 1023.9
20190116133120 39 187 5.0 6.0 0.00 0.00 0.00 87 1023.9
20190116133031 39 196 5.0 6.0 0.00 0.00 0.00 87 1023.8
20190116132918 39 199 5.0 6.0 0.00 0.00 0.00 87 1023.8
20190116132831 39 189 4.0 6.0 0.00 0.00 0.00 87 1023.9
20190116132721 39 189 5.0 6.0 0.00 0.00 0.00 87 1023.9
20190116132617 39 201 5.0 6.0 0.00 0.00 0.00 87 1023.9
20190116132527 39 212 4.0 6.0 0.00 0.00 0.00 87 1024.0
20190116132415 39 190 3.0 6.0 0.00 0.00 0.00 87 1024.0
20190116132327 39 198 3.0 6.0 0.00 0.00 0.00 87 1024.0
20190116132218 39 211 3.0 7.0 0.00 0.00 0.00 87 1024.0
20190116132114 39 190 3.0 7.0 0.00 0.00 0.00 87 1024.0
20190116132024 39 190 4.0 7.0 0.00 0.00 0.00 87 1024.0
20190116131913 39 188 4.0 7.0 0.00 0.00 0.00 87 1024.0
20190116131826 39 194 4.0 7.0 0.00 0.00 0.00 87 1023.9
20190116131716 39 191 4.0 7.0 0.00 0.00 0.00 87 1023.9
20190116131631 39 197 5.0 7.0 0.00 0.00 0.00 87 1024.0
20190116131523 39 202 5.0 7.0 0.00 0.00 0.00 87 1023.9
20190116131431 39 195 5.0 7.0 0.00 0.00 0.00 87 1023.9
20190116131321 39 215 5.0 8.0 0.00 0.00 0.00 87 1023.9
20190116131213 39 214 5.0 8.0 0.00 0.00 0.00 87 1024.0
20190116131128 39 211 4.0 8.0 0.00 0.00 0.00 87 1023.9
20190116131019 39 205 5.0 8.0 0.00 0.00 0.00 87 1023.9
20190116130926 39 205 5.0 8.0 0.00 0.00 0.00 87 1023.9
20190116130819 39 198 5.0 8.0 0.00 0.00 0.00 87 1023.9
20190116130729 39 196 5.0 8.0 0.00 0.00 0.00 87 1023.9
20190116130624 39 188 5.0 8.0 0.00 0.00 0.00 87 1023.8
20190116130515 39 194 5.0 6.0 0.00 0.00 0.00 87 1023.8
20190116130424 39 209 5.0 6.0 0.00 0.00 0.00 87 1023.7
20190116130315 39 206 4.0 6.0 0.00 0.00 0.00 87 1023.7
20190116130226 39 205 4.0 6.0 0.00 0.00 0.00 87 1023.7
20190116130121 39 192 4.0 6.0 0.00 0.00 0.00 87 1023.7
20190116130012 39 212 4.0 7.0 0.00 0.00 0.00 87 1023.7
20190116125930 39 190 4.0 7.0 0.00 0.00 0.00 87 1023.6
20190116125829 39 187 4.0 7.0 0.00 0.00 0.00 87 1023.6
20190116125720 39 198 4.0 7.0 0.00 0.00 0.00 87 1023.6
20190116125614 39 188 3.0 7.0 0.00 0.00 0.00 87 1023.6
20190116125525 39 191 3.0 7.0 0.00 0.00 0.00 87 1023.6
20190116125412 39 194 4.0 7.0 0.00 0.00 0.00 87 1023.6
20190116125323 39 190 5.0 7.0 0.00 0.00 0.00 87 1023.5
20190116125214 39 227 5.0 7.0 0.00 0.00 0.00 87 1023.5
20190116125126 39 188 5.0 7.0 0.00 0.00 0.00 87 1023.5
20190116125020 39 209 4.0 7.0 0.00 0.00 0.00 87 1023.4
20190116124927 39 203 5.0 7.0 0.00 0.00 0.00 87 1023.4
20190116124819 39 202 5.0 7.0 0.00 0.00 0.00 87 1023.4
20190116124730 39 188 5.0 8.0 0.00 0.00 0.00 87 1023.4
20190116124621 39 190 5.0 8.0 0.00 0.00 0.00 87 1023.4
20190116124517 39 182 5.0 8.0 0.00 0.00 0.00 87 1023.4
20190116124424 39 205 5.0 8.0 0.00 0.00 0.00 87 1023.4
20190116124314 39 198 5.0 8.0 0.00 0.00 0.00 87 1023.5
20190116124226 39 205 5.0 8.0 0.00 0.00 0.00 87 1023.5
20190116124116 38 209 5.0 7.0 0.00 0.00 0.00 87 1023.5
20190116124031 38 215 5.0 7.0 0.00 0.00 0.00 87 1023.6
20190116123919 38 190 5.0 7.0 0.00 0.00 0.00 87 1023.5
20190116123831 38 188 4.0 6.0 0.00 0.00 0.00 87 1023.5
20190116123721 38 209 3.0 6.0 0.00 0.00 0.00 87 1023.6
20190116123612 38 196 3.0 6.0 0.00 0.00 0.00 87 1023.6
20190116123527 38 206 4.0 6.0 0.00 0.00 0.00 87 1023.6
20190116123414 38 186 4.0 6.0 0.00 0.00 0.00 87 1023.5
20190116123325 38 182 4.0 6.0 0.00 0.00 0.00 87 1023.6
20190116123216 38 194 4.0 6.0 0.00 0.00 0.00 87 1023.6
20190116123128 38 194 4.0 6.0 0.00 0.00 0.00 87 1023.6
20190116123023 38 208 4.0 6.0 0.00 0.00 0.00 87 1023.5
20190116122930 38 192 4.0 6.0 0.00 0.00 0.00 87 1023.5
20190116122823 38 194 4.0 6.0 0.00 0.00 0.00 87 1023.5
20190116122713 38 197 5.0 6.0 0.00 0.00 0.00 87 1023.5
20190116122624 38 206 4.0 6.0 0.00 0.00 0.00 87 1023.4
20190116122519 38 198 4.0 6.0 0.00 0.00 0.00 87 1023.5
20190116122426 38 198 3.0 5.0 0.00 0.00 0.00 87 1023.4
20190116122318 38 196 4.0 5.0 0.00 0.00 0.00 87 1023.4
20190116122228 38 202 4.0 5.0 0.00 0.00 0.00 87 1023.4
20190116122119 38 206 3.0 5.0 0.00 0.00 0.00 87 1023.3
20190116122014 38 206 3.0 5.0 0.00 0.00 0.00 87 1023.3
20190116121921 38 212 3.0 5.0 0.00 0.00 0.00 87 1023.3
20190116121814 38 212 3.0 5.0 0.00 0.00 0.00 87 1023.3
20190116121725 38 180 2.0 5.0 0.00 0.00 0.00 87 1023.2
20190116121615 38 232 3.0 5.0 0.00 0.00 0.00 87 1023.2
20190116121531 38 231 3.0 5.0 0.00 0.00 0.00 87 1023.2
20190116121417 38 212 4.0 5.0 0.00 0.00 0.00 87 1023.2
20190116121328 38 234 4.0 6.0 0.00 0.00 0.00 87 1023.2
20190116121219 38 202 3.0 6.0 0.00 0.00 0.00 87 1023.2
20190116121131 38 202 4.0 6.0 0.00 0.00 0.00 87 1023.2
20190116121025 38 192 3.0 6.0 0.00 0.00 0.00 87 1023.2
20190116120912 38 203 4.0 7.0 0.00 0.00 0.00 87 1023.1
20190116120824 38 179 4.0 7.0 0.00 0.00 0.00 87 1023.1
20190116120715 38 193 4.0 7.0 0.00 0.00 0.00 87 1023.2
20190116120626 38 197 4.0 7.0 0.00 0.00 0.00 88 1023.1
20190116120521 38 200 5.0 7.0 0.00 0.00 0.00 88 1023.1
20190116120429 38 213 5.0 7.0 0.00 0.00 0.00 88 1023.2
20190116120320 38 198 5.0 7.0 0.00 0.00 0.00 88 1023.2
20190116120231 38 182 5.0 7.0 0.00 0.00 0.00 88 1023.1
20190116120122 38 215 5.0 7.0 0.00 0.00 0.00 88 1023.1
20190116120018 38 209 4.0 7.0 0.00 0.00 0.00 88 1023.1
20190116115935 38 192 4.0 7.0 0.00 0.00 0.00 88 1023.1
20190116115814 38 196 4.0 7.0 0.00 0.00 0.00 88 1023.1
20190116115724 38 179 4.0 6.0 0.00 0.00 0.00 88 1023.1
20190116115615 38 226 4.0 6.0 0.00 0.00 0.00 88 1023.2
20190116115526 38 211 4.0 6.0 0.00 0.00 0.00 88 1023.2
20190116115418 38 207 4.0 6.0 0.00 0.00 0.00 88 1023.2
20190116115329 38 201 4.0 6.0 0.00 0.00 0.00 88 1023.2
20190116115220 38 207 4.0 6.0 0.00 0.00 0.00 88 1023.1
20190116115131 38 194 4.0 6.0 0.00 0.00 0.00 88 1023.2
20190116115022 38 211 3.0 7.0 0.00 0.00 0.00 88 1023.2
20190116114914 38 190 2.0 7.0 0.00 0.00 0.00 88 1023.1
20190116114827 38 184 3.0 7.0 0.00 0.00 0.00 88 1023.1
20190116114717 38 213 3.0 7.0 0.00 0.00 0.00 88 1023.1
20190116114628 38 215 3.0 6.0 0.00 0.00 0.00 88 1023.1
20190116114519 38 250 4.0 6.0 0.00 0.00 0.00 88 1023.1
20190116114431 38 204 4.0 6.0 0.00 0.00 0.00 88 1023.1
20190116114321 38 198 4.0 6.0 0.00 0.00 0.00 88 1023.1
20190116114212 38 223 4.0 6.0 0.00 0.00 0.00 88 1023.1
20190116114123 38 189 4.0 6.0 0.00 0.00 0.00 88 1023.1
20190116114015 38 209 3.0 6.0 0.00 0.00 0.00 88 1023.1
20190116113925 38 202 2.0 6.0 0.00 0.00 0.00 88 1023.1
20190116113818 38 219 3.0 6.0 0.00 0.00 0.00 88 1023.1
20190116113728 38 235 4.0 6.0 0.00 0.00 0.00 88 1023.1
20190116113619 38 192 4.0 8.0 0.00 0.00 0.00 88 1023.1
20190116113530 38 208 3.0 8.0 0.00 0.00 0.00 88 1023.1
20190116113333 38 191 3.0 8.0 0.00 0.00 0.00 88 1023.1
20190116113218 38 191 3.0 8.0 0.00 0.00 0.00 88 1023.1
20190116113128 38 197 3.0 8.0 0.00 0.00 0.00 88 1023.1
20190116113019 38 171 2.0 8.0 0.00 0.00 0.00 88 1023.1
20190116112912 38 171 4.0 8.0 0.00 0.00 0.00 88 1023.1
20190116112825 38 205 4.0 8.0 0.00 0.00 0.00 88 1023.2
20190116112715 38 221 4.0 8.0 0.00 0.00 0.00 88 1023.1
20190116112626 38 217 4.0 8.0 0.00 0.00 0.00 88 1023.1
20190116112517 38 194 3.0 8.0 0.00 0.00 0.00 88 1023.1
20190116112428 38 234 4.0 8.0 0.00 0.00 0.00 88 1023.1
20190116112319 38 221 5.0 8.0 0.00 0.00 0.00 88 1023.1
20190116112230 38 191 4.0 8.0 0.00 0.00 0.00 88 1023.2
20190116112121 38 196 4.0 8.0 0.00 0.00 0.00 88 1023.1
20190116112013 38 207 4.0 8.0 0.00 0.00 0.00 88 1023.2
20190116111923 38 193 3.0 8.0 0.00 0.00 0.00 88 1023.1
20190116111815 38 241 3.0 8.0 0.00 0.00 0.00 88 1023.1
20190116111726 38 192 4.0 8.0 0.00 0.00 0.00 88 1023.2
20190116111617 38 191 4.0 8.0 0.00 0.00 0.00 88 1023.1
20190116111528 38 196 4.0 8.0 0.00 0.00 0.00 88 1023.1
20190116111420 38 178 4.0 9.0 0.00 0.00 0.00 88 1023.1
20190116111330 38 191 4.0 9.0 0.00 0.00 0.00 88 1023.1
20190116111222 38 236 5.0 9.0 0.00 0.00 0.00 88 1023.1
20190116111112 38 244 5.0 10.0 0.00 0.00 0.00 88 1023.0
20190116111023 38 214 5.0 10.0 0.00 0.00 0.00 88 1023.0
20190116110825 38 194 4.0 10.0 0.00 0.00 0.00 88 1023.0